GFSFLT2_con_mucape_000.txt.gz
CAPE
704 751 806 897 1007 1135 1293 1552 1708 1554 1425 1512 1397 1256 1084 783 603 492 332 333 212 226 256 408 481 332 296 299 402 503 417 309
757 618 567 305 389 679 901 1185 1452 1244 895 689 610 719 557 362 85 171 142 142 120 84 37 33 124 172 194 178 142 77 61 81
997 823 787 560 286 267 621 951 1199 1119 673 416 188 35 4 0 8 24 108 34 5 2 0 0 0 20 27 45 71 69 60 30
1050 1031 926 737 580 316 194 280 697 982 682 230 86 102 0 0 0 0 0 0 0 0 0 0 0 0 0 0 0 0 0 0
1042 1087 1166 1048 957 440 346 290 265 405 622 355 192 162 44 0 0 0 0 0 0 0 0 0 0 0 0 0 0 0 0 0
1418 1291 1328 1196 889 755 550 350 276 278 289 180 172 97 18 0 0 0 0 0 0 0 0 0 0 0 0 0 0 0 0 0
804 551 511 582 433 482 376 433 478 348 356 268 39 16 0 0 0 0 0 0 0 0 0 0 0 0 0 0 0 0 0 0
4 71 276 181 32 110 132 199 269 231 358 127 14 0 0 0 0 0 0 0 0 0 0 0 0 0 0 0 0 0 0 0
0 0 1 13 0 0 0 0 0 5 9 0 0 0 0 0 1 0 14 0 0 0 0 0 0 0 0 0 0 0 0 0
0 0 0 0 0 0 0 0 0 0 0 0 0 0 0 0 0 0 0 0 0 0 0 0 0 0 0 0 0 0 0 0
0 0 0 0 0 0 0 0 0 0 0 0 0 0 0 0 0 0 0 0 0 0 0 0 0 0 0 0 0 0 0 0
0 0 0 0 0 0 0 0 0 0 0 0 0 0 0 0 0 0 0 0 0 0 0 0 0 0 0 0 0 0 0 0
0 0 0 0 0 0 0 0 0 0 0 0 0 0 0 0 0 0 0 0 0 0 0 0 0 0 0 0 0 0 0 0
0 0 0 0 0 0 0 0 0 0 0 0 0 0 0 0 0 0 0 0 0 0 0 0 0 0 0 0 0 0 0 0
0 0 0 0 0 0 0 0 0 0 0 0 0 0 0 0 0 0 0 0 0 0 0 0 0 0 0 0 0 0 0 0
0 0 0 0 0 0 0 0 0 0 0 0 0 0 0 0 0 0 0 0 1 9 4 14 0 0 0 0 0 0 0 0
0 0 0 0 0 0 0 0 0 0 0 0 0 0 0 0 0 0 0 0 0 8 1 4 1 0 0 0 0 0 0 0
0 0 0 0 0 0 1 0 0 0 0 0 0 0 0 0 0 0 0 0 0 0 0 8 0 2 0 0 0 0 0 0
0 0 0 0 0 0 0 0 0 0 0 0 0 0 0 0 0 0 0 0 0 0 5 32 11 8 3 0 0 0 0 0
0 0 0 0 0 0 0 0 0 0 0 0 0 0 0 0 0 0 0 0 3 7 20 43 5 2 16 1 0 0 0 0

GFSFLT2_con_mucape_003.txt.gz
CAPE
882 884 895 882 958 1017 1186 1454 1486 1375 1319 1176 1133 1197 915 683 559 417 289 309 322 241 286 272 208 224 260 311 552 581 1110 834
709 632 379 440 627 571 808 1060 1262 981 747 481 419 435 227 210 1 55 137 166 130 73 27 8 0 61 97 130 172 203 227 213
453 321 273 208 210 412 516 781 1049 912 513 234 159 225 87 11 3 0 5 1 0 0 0 0 0 0 0 3 24 52 58 37
519 461 478 288 189 357 514 524 944 1137 917 502 279 252 115 55 1 0 0 0 0 0 0 0 0 0 0 0 0 0 0 1
607 622 636 466 355 326 279 263 548 819 988 830 391 289 271 154 37 0 0 0 0 0 0 0 0 0 0 0 0 0 0 0
1140 672 664 820 806 658 434 362 306 577 684 584 595 456 241 46 0 0 1 2 1 0 2 0 0 0 0 0 0 0 0 0
1366 1108 1056 1227 720 632 610 504 388 545 638 574 338 286 229 13 0 0 0 2 1 2 0 0 0 0 0 0 0 0 0 0
1119 622 477 439 196 179 189 152 359 359 498 573 360 204 181 55 39 23 30 0 1 0 0 0 0 0 0 0 0 0 0 0
810 123 76 131 16 0 0 0 0 6 43 74 71 62 67 77 119 149 129 91 17 0 0 0 0 0 0 0 0 0 0 0
248 0 12 48 7 6 2 0 0 0 0 0 0 0 14 68 95 129 144 135 57 0 0 0 0 0 0 0 0 0 0 0
0 0 23 31 9 7 3 0 0 0 0 0 0 0 10 40 45 40 61 41 13 0 0 0 0 0 0 0 0 0 0 0
0 0 2 7 0 0 0 0 0 0 0 0 0 0 0 7 0 0 0 0 0 0 0 0 0 0 0 0 0 0 0 0
0 0 0 0 0 0 0 0 0 0 0 0 0 0 0 0 0 0 0 0 0 0 0 0 0 0 0 0 0 0 0 0
0 0 0 0 0 0 0 0 0 0 0 0 0 0 0 0 0 0 0 0 0 4 0 0 0 0 0 0 0 0 0 0
0 0 0 0 0 0 0 0 0 1 0 0 0 0 0 0 0 0 0 0 0 4 3 7 8 1 3 0 0 0 0 0
0 0 0 0 0 0 0 0 0 0 0 0 0 0 0 0 0 0 0 0 0 0 0 0 10 29 18 4 0 0 0 0
0 0 0 0 0 0 0 0 0 0 0 0 0 0 0 0 0 0 0 0 0 0 0 0 0 0 9 9 7 0 0 0
0 0 0 0 0 0 0 1 0 0 0 0 0 0 0 0 0 0 0 0 0 0 0 0 0 0 0 0 12 7 9 0
0 0 3 0 0 5 0 0 0 0 0 0 0 0 0 0 0 0 0 0 0 0 0 0 0 0 0 1 27 18 11 5
0 0 1 0 0 0 0 0 0 0 0 0 0 0 0 0 0 0 0 0 0 0 0 0 0 2 1 7 25 0 3 0

GFSFLT2_con_mucape_006.txt.gz
CAPE
519 544 690 800 847 922 1087 1362 1269 1116 1007 906 1022 947 710 570 432 251 228 215 166 90 81 105 93 67 123 268 427 513 1292 1149
627 795 658 760 748 471 636 866 1043 759 552 317 359 425 193 43 0 21 44 16 12 0 0 0 0 0 0 32 82 162 657 726
918 832 754 670 474 457 232 533 838 682 465 195 380 540 505 153 0 0 0 0 0 0 0 0 0 0 0 0 0 93 147 141
1173 1254 1046 745 220 704 652 535 688 1066 1150 1221 836 912 750 168 4 0 0 0 0 0 0 0 0 0 0 0 0 7 11 16
1243 1486 1436 1079 290 480 348 307 445 712 1358 1550 1203 1143 868 599 422 99 51 0 0 0 0 0 0 0 0 0 0 0 0 0
1487 1443 1642 1622 656 312 363 388 369 505 719 1441 1216 863 730 632 246 11 0 0 1 0 0 0 0 0 0 0 0 0 0 0
1885 1888 1747 1138 1240 473 604 627 330 576 571 499 919 583 418 197 20 0 0 0 2 9 4 0 0 0 0 0 0 0 0 0
2147 2155 1633 690 525 574 300 171 122 127 69 55 375 554 142 8 0 0 0 0 0 1 0 0 0 0 0 0 0 0 0 0
1962 1850 676 512 258 84 10 0 13 0 0 13 54 85 26 30 0 0 0 0 0 34 0 0 0 0 0 0 0 0 0 0
1486 734 199 148 43 33 16 15 33 26 18 17 22 44 61 57 22 3 5 23 1 12 0 0 0 0 0 0 0 0 0 0
1190 545 14 10 49 45 53 61 29 0 0 0 1 12 29 66 30 26 63 57 32 23 6 0 0 0 0 0 0 0 0 0
705 103 40 67 35 6 0 0 0 0 0 0 0 0 0 3 5 23 47 52 34 13 18 12 2 0 0 0 0 0 0 0
61 31 0 0 0 0 0 0 0 0 0 0 0 0 0 0 0 4 16 22 35 63 55 53 32 15 0 0 0 0 0 0
0 0 0 0 0 0 0 0 0 0 0 0 0 0 0 0 0 0 0 0 0 12 41 50 57 38 5 0 0 2 12 0
0 0 0 0 0 0 0 0 0 0 0 0 0 0 0 0 0 0 0 0 0 0 0 2 8 55 132 35 21 53 74 60
0 0 0 0 0 0 0 0 0 0 1 0 0 0 0 0 0 0 0 0 0 0 0 0 9 14 65 97 113 79 107 84
0 0 0 0 0 0 0 0 1 1 0 0 0 0 0 0 0 0 0 0 0 0 0 0 2 22 41 58 50 74 48 33
0 0 0 0 0 0 2 2 1 0 0 0 0 0 0 0 0 0 0 0 0 0 2 5 7 12 11 11 11 0 1 21
0 0 0 0 0 0 0 0 0 0 0 0 0 0 0 0 0 0 0 0 0 5 13 14 0 0 0 0 0 1 6 5
0 5 3 3 0 0 0 0 0 0 0 0 0 0 0 0 1 5 13 20 44 55 33 3 8 0 0 0 0 2 17 18

GFSFLT2_con_mucape_009.txt.gz
CAPE
206 255 344 638 648 764 980 1087 950 835 658 740 795 619 487 372 227 127 107 73 54 16 0 4 23 23 10 35 138 255 779 1101
476 405 283 443 705 502 657 837 797 539 345 224 369 409 262 53 26 21 2 0 0 0 0 0 0 0 0 0 0 41 495 372
601 518 284 169 58 189 227 565 787 562 433 404 525 676 466 310 8 0 0 0 0 0 0 0 0 0 0 0 0 86 42 30
1046 941 604 253 0 206 179 46 380 552 716 808 652 679 559 265 42 8 0 0 0 0 0 0 0 0 0 0 0 0 0 0
949 1488 974 344 79 108 178 120 157 293 591 832 612 585 548 363 258 128 78 2 7 1 2 6 0 0 0 0 0 0 0 0
900 1530 904 523 330 175 203 175 184 199 411 434 441 303 274 239 35 5 8 8 7 9 5 6 0 0 0 0 0 0 0 0
753 1500 616 176 208 257 295 314 271 297 157 99 124 140 136 11 0 0 0 2 7 4 3 1 0 0 0 0 0 0 0 0
798 1259 664 81 89 176 198 77 25 11 0 1 16 54 61 18 0 0 0 0 0 0 0 0 0 0 0 0 0 0 0 0
924 1141 454 51 107 72 6 0 0 0 0 0 3 19 36 50 27 26 0 38 97 34 7 9 7 1 0 0 0 0 0 0
664 907 197 36 23 21 6 13 6 14 3 0 5 4 0 35 14 28 91 108 39 54 7 9 12 11 16 0 0 0 0 0
626 1022 11 4 45 50 36 20 15 0 0 0 0 0 0 10 17 71 226 120 190 171 121 138 65 30 7 20 6 0 5 0
591 649 3 34 63 59 1 0 0 0 0 0 0 0 0 0 2 37 69 29 73 130 266 108 240 193 9 42 74 35 0 7
537 94 35 15 5 0 0 0 0 1 3 0 0 0 0 0 0 0 0 0 25 89 120 148 173 219 276 233 171 90 86 3
92 55 20 0 0 0 0 0 0 1 3 0 0 0 0 0 0 0 0 0 4 54 95 72 110 193 254 277 197 133 168 125
14 30 7 0 0 0 0 0 0 0 0 0 0 0 0 0 0 0 0 0 0 25 26 39 34 50 223 261 159 114 225 187
0 0 0 0 0 0 0 0 0 0 0 0 0 0 0 0 0 0 0 0 0 0 2 6 30 11 56 31 220 289 147 154
0 0 0 0 0 0 0 0 0 0 0 0 0 0 0 0 0 0 0 0 0 6 16 17 19 33 24 50 42 22 64 25
0 0 0 0 0 4 15 3 0 0 0 0 0 0 0 0 0 0 0 8 11 12 28 38 19 34 31 13 12 0 3 2
0 1 10 5 0 0 0 0 0 0 0 0 0 0 0 0 0 0 0 18 37 56 54 21 22 5 10 29 8 0 1 1
0 6 2 0 3 0 0 0 0 0 0 0 0 0 0 2 13 28 34 33 42 34 32 26 1 21 18 8 0 0 0 0

GFSFLT2_con_mucape_012.txt.gz
CAPE
19 120 368 562 599 756 873 874 821 689 643 637 582 471 430 221 116 65 19 0 0 0 0 0 0 0 8 14 3 42 11 374
297 275 407 305 225 451 672 723 599 491 343 349 423 340 330 119 116 1 0 0 0 0 0 0 0 0 0 0 0 0 56 106
370 249 299 636 229 271 517 726 606 442 404 260 397 437 344 146 0 0 0 0 0 0 0 0 0 0 0 0 0 0 0 0
814 613 414 96 5 153 681 475 628 649 652 679 721 641 528 193 121 33 2 0 2 0 0 0 1 0 0 0 0 0 0 0
1091 1205 753 443 294 97 356 402 361 782 1294 555 871 465 919 468 363 216 46 10 20 0 10 0 4 0 0 0 0 0 0 0
1235 1108 876 651 551 534 642 433 198 435 381 616 561 324 392 139 33 0 0 0 1 10 0 2 3 0 0 0 0 0 0 0
898 1083 846 1053 331 921 758 640 380 349 238 252 193 200 232 122 34 6 0 0 0 0 0 0 0 0 0 0 0 0 0 0
1256 1247 738 408 552 378 633 242 336 243 71 4 73 75 109 96 35 35 10 2 5 0 0 0 0 0 0 0 0 0 0 0
1061 1102 741 467 370 325 257 13 8 35 32 25 25 59 62 113 56 52 55 80 54 23 10 0 0 0 0 0 0 0 0 0
263 673 633 345 409 66 79 90 61 52 82 48 11 18 17 66 56 77 115 115 86 60 39 24 1 0 0 0 0 0 0 0
632 998 420 114 207 87 77 52 43 14 0 14 0 1 2 6 2 43 73 35 36 30 2 29 14 0 0 0 0 1 0 0
755 766 210 88 164 108 13 2 5 20 6 0 0 0 0 0 0 1 27 0 0 0 0 0 0 0 0 0 0 0 0 0
276 224 32 33 56 5 0 0 1 1 1 0 0 0 0 0 0 0 0 0 0 0 0 0 0 0 0 0 0 0 58 50
63 64 74 53 17 0 0 0 0 0 4 0 0 0 0 0 0 0 0 0 0 0 0 0 0 0 0 0 0 0 0 3
69 41 55 64 31 5 0 0 0 0 0 0 0 0 0 0 0 0 0 0 0 0 0 0 0 0 0 0 0 0 0 0
0 0 0 0 0 0 0 0 0 0 0 0 0 0 0 0 0 0 0 0 0 0 0 0 0 0 0 0 1 3 0 0
0 0 0 0 0 0 0 0 0 0 0 0 0 0 0 0 0 0 0 0 0 6 0 0 0 0 0 2 0 0 0 3
0 0 0 0 0 0 0 0 0 0 0 0 0 0 0 0 0 0 1 14 21 8 13 12 12 10 4 13 6 9 3 0
0 0 0 1 3 1 1 0 0 0 0 0 0 0 0 0 0 5 13 13 14 10 13 10 8 7 6 8 12 4 0 1
23 6 0 0 6 3 2 0 0 0 0 0 0 0 0 0 2 7 2 1 2 6 7 4 4 13 9 11 0 0 1 0

GFSFLT2_con_mucape_015.txt.gz
CAPE
108 187 312 364 426 447 462 584 592 592 619 649 554 476 391 276 116 10 0 0 0 0 0 0 0 0 0 0 0 0 9 94
1 6 64 29 114 265 282 307 264 184 303 410 283 296 237 235 94 33 0 0 0 0 0 0 0 0 0 0 0 0 0 8
70 161 185 0 0 138 276 352 230 177 225 314 200 276 159 77 65 28 1 0 0 0 0 0 0 0 0 0 0 0 0 33
50 79 336 5 0 17 45 236 216 276 371 310 338 276 319 160 102 42 5 3 3 0 0 0 0 0 0 0 0 0 0 0
180 43 0 4 34 43 70 137 304 409 366 182 32 202 63 12 83 41 2 4 0 1 0 0 0 0 0 0 0 0 0 0
298 32 3 44 13 8 0 1 112 161 161 97 24 21 0 0 0 0 0 0 0 0 0 0 0 0 0 0 0 0 0 0
542 80 123 17 104 62 34 48 41 68 3 0 0 4 0 0 0 0 0 0 0 0 0 0 0 0 0 0 0 0 0 0
688 304 268 40 136 91 33 5 0 8 0 0 0 0 0 0 0 0 0 1 7 0 0 0 0 0 0 0 0 0 0 0
407 153 193 118 213 68 74 1 0 0 0 0 0 0 0 0 0 0 0 14 1 0 0 0 0 0 0 0 0 0 0 0
439 467 148 21 69 42 3 0 0 0 0 0 0 0 0 0 0 0 0 0 0 0 0 0 0 0 0 0 0 0 0 0
410 273 242 163 35 33 4 7 0 0 0 0 0 0 0 0 0 0 0 0 0 0 0 0 0 0 0 0 0 0 0 0
535 330 160 17 42 29 26 6 0 0 0 0 0 0 0 0 0 0 0 0 0 0 0 0 0 0 0 0 0 0 0 0
207 92 48 50 38 47 46 29 1 0 0 0 9 7 0 0 0 0 0 0 0 0 0 0 0 0 0 0 0 0 0 0
97 122 106 64 68 55 52 24 3 0 0 0 0 0 0 0 0 0 0 0 0 0 0 0 0 0 0 0 0 0 0 0
77 51 32 25 38 29 15 1 0 0 0 0 0 0 0 0 0 0 0 0 0 0 0 0 0 0 0 0 0 0 0 0
0 0 0 0 0 0 0 0 0 0 0 0 0 0 0 0 0 0 0 0 0 0 0 0 0 0 0 5 20 13 0 0
0 0 0 0 0 0 0 0 0 0 0 0 0 0 0 0 0 0 0 0 0 0 0 0 4 14 12 4 4 2 1 0
0 0 0 0 0 0 0 0 0 0 0 0 0 0 0 0 0 0 0 0 0 0 1 0 6 8 12 2 5 25 32 5
0 0 0 0 0 0 0 2 6 12 4 2 0 0 0 0 0 0 0 0 0 3 8 9 15 11 13 1 3 0 0 2
0 0 0 0 0 0 0 2 4 14 6 2 0 0 0 0 0 0 0 0 0 0 5 15 19 4 1 1 0 2 20 23

GFSFLT2_con_mucape_018.txt.gz
CAPE
276 353 444 454 425 400 435 587 660 721 734 625 527 378 299 201 44 0 0 0 0 0 0 0 0 0 0 0 0 0 0 0
17 59 74 88 157 230 276 292 286 375 372 271 217 205 190 162 64 13 0 0 0 0 0 0 0 0 0 0 0 0 0 91
0 0 0 2 35 161 273 301 210 172 245 226 115 125 54 19 17 0 0 0 0 0 2 0 0 0 0 0 0 0 0 0
20 12 0 0 7 83 45 85 193 226 247 239 167 201 224 74 51 82 60 8 14 25 34 20 5 0 0 0 0 0 0 0
61 107 0 0 19 44 36 186 293 310 347 274 169 193 254 105 23 0 0 0 0 0 0 0 0 0 0 0 0 0 0 0
55 205 63 30 7 90 40 188 409 459 195 39 0 0 0 0 0 0 0 0 0 0 0 0 0 0 0 0 0 0 0 0
233 63 49 56 99 101 143 125 493 138 43 0 0 0 0 0 0 0 0 0 0 0 0 0 0 0 0 0 0 0 0 0
447 169 43 78 60 74 103 48 56 40 1 0 0 0 0 0 0 0 0 0 0 0 0 0 0 0 0 0 0 0 0 0
602 275 100 52 93 69 4 0 37 0 0 0 0 0 0 0 0 0 0 0 0 0 0 0 0 0 0 0 0 0 0 0
471 282 68 79 122 27 72 1 0 0 0 0 0 0 0 0 0 0 0 0 0 0 0 0 0 0 0 0 0 0 0 0
457 272 206 91 54 26 10 6 0 0 0 0 0 0 0 0 0 0 0 0 0 0 0 0 0 0 0 0 0 0 0 0
395 265 74 35 87 44 12 0 15 11 0 0 0 0 7 16 13 6 0 0 0 0 0 0 0 0 0 0 0 0 0 0
117 76 50 27 29 26 9 13 18 10 0 0 4 4 4 0 0 0 0 0 0 0 0 0 0 0 0 0 0 0 0 0
30 8 11 14 18 28 52 36 44 29 3 13 10 1 0 0 0 0 0 0 0 0 0 0 0 0 0 0 0 0 0 0
2 0 0 6 19 24 20 11 5 1 0 0 0 0 0 0 0 0 0 0 0 0 0 0 0 0 0 2 0 0 0 0
0 0 0 0 0 0 0 0 0 0 0 0 0 0 0 0 0 0 0 0 0 0 0 0 5 2 6 23 18 13 0 0
0 0 0 0 0 0 0 0 0 0 0 0 0 2 2 0 0 0 0 0 0 0 0 0 0 3 12 13 0 3 7 2
0 0 0 0 0 0 0 0 0 0 5 14 14 2 11 4 0 0 0 0 0 0 0 0 2 6 12 11 11 19 6 14
0 0 0 0 0 0 0 0 3 15 21 18 16 2 7 0 0 0 0 0 0 0 0 0 0 1 1 1 2 0 4 6
0 2 6 0 0 0 2 12 8 19 29 29 16 3 0 0 0 0 0 0 0 0 0 1 12 0 3 9 10 2 7 34

GFSFLT2_con_mucape_021.txt.gz
CAPE
611 607 619 590 512 488 486 562 608 640 698 706 557 413 249 164 31 0 0 0 0 0 0 0 0 0 0 0 0 0 0 67
142 179 222 174 179 233 289 349 354 445 475 344 205 180 152 128 35 13 0 0 0 9 11 5 0 0 0 0 0 0 0 0
0 10 12 5 0 60 194 256 226 264 244 147 58 43 36 35 66 27 40 26 30 45 88 42 0 0 0 0 0 0 0 0
0 0 0 0 2 30 12 73 33 122 202 114 89 121 174 79 73 93 164 111 138 86 33 30 0 0 0 0 0 0 0 0
0 0 0 10 6 11 56 112 118 172 230 243 208 185 163 176 26 0 0 0 0 0 0 0 0 0 0 0 0 0 0 0
48 0 0 3 49 31 86 202 212 316 311 133 70 0 0 0 0 0 0 0 0 0 0 0 0 0 0 0 0 0 0 0
218 119 2 6 56 103 70 205 377 441 223 26 0 0 0 0 0 0 0 0 0 0 0 0 0 0 0 0 0 0 0 0
267 214 99 19 98 131 150 191 462 282 53 0 0 0 0 0 0 0 0 0 0 0 0 0 0 0 0 0 0 0 0 0
307 269 77 86 125 117 53 79 200 123 0 0 0 0 0 0 0 0 0 0 0 0 0 0 0 0 0 0 0 0 0 0
283 250 100 56 56 53 12 0 13 7 0 0 0 0 0 0 0 0 0 0 0 0 0 0 0 0 0 0 0 0 0 0
232 94 113 14 64 15 15 10 0 2 0 0 1 2 1 5 0 0 8 5 0 0 0 0 0 0 0 0 0 0 0 0
249 158 104 51 62 43 26 17 14 18 29 40 33 20 21 10 11 15 0 0 0 0 0 0 0 0 0 0 0 0 0 0
219 192 64 60 70 65 34 35 30 35 44 26 41 15 11 1 0 0 0 0 0 0 0 0 0 0 0 0 0 0 0 0
50 48 83 119 81 59 51 55 52 41 11 16 2 0 0 1 0 0 0 0 0 0 0 0 0 0 0 0 0 0 0 0
0 0 0 14 62 32 20 7 0 0 0 0 0 0 0 0 0 0 0 0 0 0 0 0 0 0 0 0 0 0 0 0
0 0 0 0 0 0 0 0 0 0 0 0 0 2 2 5 1 0 0 0 0 0 0 0 0 0 0 0 0 1 0 0
0 0 0 0 0 0 0 0 0 0 0 2 6 14 16 0 14 3 0 0 0 0 0 0 0 0 0 0 0 3 2 0
0 0 0 0 0 0 0 0 0 2 6 6 8 10 9 0 0 0 0 0 0 0 0 0 0 0 0 0 0 0 0 0
0 0 0 0 0 0 0 0 0 0 4 3 0 0 0 0 0 0 0 0 0 0 0 0 0 0 0 0 0 0 5 12
0 0 0 0 0 0 0 0 0 0 0 0 0 0 0 0 0 0 0 0 0 0 0 0 0 0 0 0 0 0 9 43

GFSFLT2_con_mucape_024.txt.gz
CAPE
743 768 744 701 637 552 487 530 588 654 679 590 531 298 136 69 21 11 2 20 86 98 112 117 75 30 8 0 0 0 0 0
763 685 606 421 306 292 321 390 411 446 540 422 254 125 66 56 0 8 101 126 152 146 195 165 104 49 15 0 0 0 0 0
338 262 105 10 8 141 314 343 339 342 345 214 56 0 0 0 6 76 156 129 154 180 86 57 0 0 0 0 0 0 0 0
3 0 0 0 0 23 7 62 117 151 123 121 81 108 75 13 13 8 2 0 0 0 0 0 0 0 0 0 0 0 0 0
0 0 0 0 0 0 0 20 116 144 186 193 162 155 156 101 0 0 0 0 0 0 0 0 0 0 0 0 0 0 0 0
0 0 0 0 0 0 44 101 158 254 265 279 170 87 4 0 0 0 0 0 0 0 0 0 0 0 0 0 0 0 0 0
25 0 0 0 0 9 92 172 250 418 369 122 62 2 0 0 0 0 0 0 0 0 0 0 0 0 0 0 0 0 0 0
194 115 4 0 11 57 80 200 379 539 351 77 11 2 0 0 0 0 0 0 0 0 0 0 0 0 0 0 0 0 0 0
275 261 49 5 6 63 107 245 344 531 232 21 0 0 0 0 0 0 0 0 0 0 0 0 0 0 0 0 0 0 0 0
273 288 58 14 51 29 105 111 169 201 103 1 0 4 7 5 8 9 12 5 3 4 0 0 0 0 0 0 0 0 0 0
284 247 53 24 22 63 39 49 21 54 34 21 35 34 12 24 22 3 3 0 1 0 0 0 0 0 0 0 0 0 0 0
263 171 61 54 86 68 39 51 42 21 40 39 40 12 0 1 4 0 0 0 0 0 0 0 0 0 0 0 0 0 0 0
186 183 99 95 72 66 75 57 40 33 14 1 1 0 0 0 0 0 0 0 0 0 0 0 0 0 0 0 0 0 0 0
53 35 23 28 27 36 23 22 7 6 1 0 0 0 0 0 0 0 0 0 0 0 0 0 0 0 0 0 0 0 0 0
0 9 10 0 0 0 0 0 0 0 0 0 0 0 0 0 0 1 1 0 0 0 0 0 0 0 0 0 0 0 0 0
0 0 0 0 0 0 0 0 0 0 0 0 1 3 0 2 3 2 0 0 0 0 0 0 0 0 0 0 0 0 0 0
0 0 0 0 0 0 0 0 0 0 0 2 7 4 0 2 0 0 0 0 0 0 0 0 0 0 0 0 0 0 0 0
0 0 0 0 0 0 0 0 0 0 0 3 1 0 0 0 0 0 0 0 0 0 0 0 0 0 0 0 0 0 0 0
0 0 0 0 0 0 0 0 0 0 0 0 0 0 0 0 0 0 0 1 0 0 0 0 0 0 0 0 0 0 0 0
0 0 0 0 0 0 0 0 0 0 0 0 0 0 0 0 0 3 9 2 0 0 0 0 0 0 0 0 0 0 0 0

GFSFLT2_con_mucape_027.txt.gz
CAPE
910 933 885 834 774 654 552 598 656 706 666 583 406 233 150 150 129 87 71 131 94 73 42 54 0 0 0 0 0 0 0 0
871 974 875 844 635 485 395 440 466 527 512 358 148 92 126 180 1 112 163 142 154 68 16 0 0 0 0 0 0 0 0 0
686 780 658 490 434 381 327 407 367 373 362 169 56 169 158 102 36 148 7 0 11 0 0 0 0 0 0 0 0 0 0 0
522 395 271 165 97 335 344 302 306 380 351 363 237 252 221 194 14 0 0 0 0 0 0 0 0 0 0 0 0 0 0 0
81 97 55 36 64 193 117 230 279 289 328 318 311 220 275 116 0 0 0 0 0 0 0 0 0 0 0 0 0 0 0 0
0 0 0 0 2 38 80 229 290 376 412 395 355 169 16 0 0 0 0 0 0 0 0 0 0 0 0 0 0 0 0 0
0 0 0 0 1 34 84 241 333 372 371 191 64 0 0 0 0 0 0 0 0 0 0 0 0 0 0 0 0 0 0 0
100 5 2 7 41 59 105 194 260 375 413 229 7 0 0 0 0 0 0 0 0 0 0 0 0 0 0 0 0 0 0 0
196 166 6 18 51 67 60 66 156 198 299 153 29 0 0 3 0 6 2 1 5 1 0 0 0 0 0 0 0 0 0 0
200 225 86 77 50 35 8 5 9 84 129 71 13 1 13 9 18 13 2 12 8 0 0 0 0 0 0 0 0 0 0 0
169 187 176 92 83 28 8 32 43 29 31 27 12 37 7 10 4 0 2 0 0 0 0 0 0 0 0 0 0 0 0 0
154 184 192 17 13 55 65 68 68 42 68 50 37 0 0 0 0 0 0 0 0 0 0 0 0 0 0 0 0 0 0 0
163 123 76 18 72 81 14 15 40 39 15 0 0 0 0 0 0 0 0 0 0 0 0 0 0 0 0 0 0 0 0 0
243 134 49 20 12 0 0 0 0 0 0 0 0 0 0 0 0 0 0 0 0 0 0 0 0 0 0 0 0 0 0 0
62 49 39 0 0 0 2 0 0 0 0 0 0 0 0 0 0 0 0 0 0 0 0 0 0 0 9 1 0 0 0 0
10 36 0 0 0 0 0 0 0 0 0 0 0 1 0 0 0 0 0 0 0 0 0 0 0 0 0 2 0 0 0 0
0 0 0 0 0 0 0 0 0 0 0 0 0 0 0 0 0 0 0 0 0 0 0 0 0 0 0 0 0 0 0 0
0 0 0 0 0 0 0 0 0 0 0 0 0 0 0 0 0 0 0 0 0 0 1 0 3 0 0 0 0 0 0 0
0 0 0 0 0 0 0 0 0 0 0 0 0 0 0 0 0 0 0 5 5 4 4 20 27 2 0 0 0 0 16 0
0 0 0 0 0 0 0 0 0 0 0 0 0 0 0 0 0 0 8 9 3 11 20 37 50 0 0 0 0 0 0 2

GFSFLT2_con_mucape_030.txt.gz
CAPE
1051 1001 979 970 864 635 577 647 703 718 661 492 319 233 247 116 78 114 104 101 88 4 0 0 0 0 0 0 0 0 0 0
1032 846 788 822 626 475 462 482 529 567 498 263 155 177 179 39 167 118 10 88 11 0 0 0 0 0 0 0 0 0 0 0
1006 727 692 560 319 384 287 420 430 410 357 171 112 246 191 104 41 4 0 0 0 0 0 0 0 0 0 0 0 0 0 0
885 738 627 344 43 173 185 129 389 509 493 545 526 653 543 241 14 0 0 0 0 0 0 0 0 0 0 0 0 0 0 0
617 579 347 63 74 134 162 528 684 817 833 847 919 851 873 324 16 6 0 0 0 0 0 0 0 0 0 0 0 0 0 0
141 155 208 153 85 185 466 635 739 778 925 1053 1049 986 610 94 10 0 0 0 0 0 0 0 0 0 0 0 0 0 0 0
25 70 97 217 346 537 688 844 938 1058 978 820 632 492 248 32 0 0 0 0 0 0 0 0 0 0 0 0 0 0 0 0
118 85 134 270 510 677 763 648 619 660 227 193 160 253 128 0 0 0 0 5 3 0 0 0 0 0 0 0 0 0 0 0
332 349 290 367 609 476 140 85 87 105 77 77 58 21 0 2 13 6 5 2 1 0 1 0 0 0 0 0 0 0 0 0
483 444 456 308 49 20 10 2 0 1 38 51 49 28 19 25 27 2 0 0 0 0 0 0 0 0 0 0 0 0 0 0
562 635 311 43 58 15 17 24 27 39 24 66 89 49 20 0 0 0 0 0 0 0 0 0 0 0 0 0 0 0 0 0
701 607 200 78 0 2 1 44 64 31 26 9 4 0 0 0 0 0 0 0 0 0 0 0 0 0 0 0 0 0 0 3
832 569 132 45 5 30 35 0 0 0 0 0 0 0 0 0 0 0 0 0 0 0 0 0 0 1 0 0 0 0 32 30
900 563 591 381 135 18 0 0 0 0 0 0 0 0 0 0 0 0 0 0 0 0 0 0 0 1 4 0 0 0 1 20
772 841 489 102 22 1 0 0 0 0 0 0 0 0 0 0 0 0 0 0 0 0 0 0 0 1 13 9 0 0 0 3
762 218 1 0 0 0 15 6 11 0 0 0 0 0 0 0 0 0 0 0 0 0 0 11 16 0 10 17 33 24 0 0
362 36 0 0 0 0 0 0 0 0 0 0 0 0 0 0 0 0 0 6 19 9 13 41 32 27 28 30 35 23 21 29
0 0 0 0 0 0 0 0 0 0 0 0 0 0 1 5 7 15 28 38 44 40 55 68 70 66 48 29 30 36 34 33
0 0 0 0 0 0 1 0 1 0 0 0 0 0 4 7 24 53 72 77 72 61 84 70 72 59 32 32 35 37 38 33
0 0 0 0 0 0 0 0 0 0 0 0 0 0 0 1 19 29 33 65 74 80 85 67 76 61 20 30 28 32 31 36

GFSFLT2_con_mucape_033.txt.gz
CAPE
849 667 776 761 562 488 512 633 661 676 560 363 274 315 326 243 190 139 105 91 1 0 0 0 0 0 0 0 0 0 0 0
1028 858 625 625 486 397 457 504 514 505 323 198 150 116 68 196 172 10 81 22 0 0 0 0 0 0 0 0 0 0 0 0
751 506 548 469 256 301 381 547 502 346 143 124 46 121 138 164 0 14 5 0 0 0 0 0 0 0 0 0 0 0 0 0
666 585 487 269 0 48 36 154 189 325 304 287 578 434 555 125 0 0 0 0 0 0 0 0 0 0 0 0 0 0 0 0
516 534 344 25 87 88 165 403 534 597 660 773 844 560 695 592 84 48 49 0 3 0 0 0 0 0 0 0 0 0 0 0
291 202 116 118 25 127 359 522 709 797 846 887 773 1051 713 329 67 27 25 0 0 0 0 0 0 0 0 0 0 0 0 0
30 59 137 213 273 512 719 830 955 1052 1105 961 691 699 1174 329 93 21 15 1 1 1 0 0 0 0 0 0 0 0 0 0
51 90 220 454 664 783 969 992 894 897 803 735 350 276 525 253 86 4 4 0 0 0 0 0 0 0 0 0 0 0 0 0
191 322 472 725 714 294 101 42 37 118 308 259 174 255 110 165 67 12 7 0 1 0 0 0 0 0 0 0 0 0 0 0
422 397 636 552 166 29 17 45 78 101 50 39 38 17 50 28 28 0 0 0 0 0 0 0 0 0 0 0 0 0 0 0
591 672 527 194 29 8 12 30 0 5 1 17 31 23 7 0 0 0 0 0 0 0 0 0 0 0 0 0 0 0 0 0
784 746 407 149 35 21 0 0 0 8 15 9 0 0 0 0 0 0 0 0 0 0 0 0 0 0 0 0 0 0 0 1
953 955 537 237 240 59 27 33 4 0 0 0 0 0 0 0 0 0 0 0 0 0 0 0 0 0 0 0 0 0 4 9
892 771 597 442 464 182 50 7 3 1 0 0 0 0 0 0 0 0 0 0 0 0 0 0 0 1 0 0 0 0 0 0
857 721 633 639 312 68 51 63 28 0 0 0 0 0 0 0 0 0 0 0 0 0 4 3 0 5 9 3 0 0 0 1
1047 931 721 255 43 33 57 52 18 28 9 1 0 0 0 0 0 0 0 0 2 8 10 17 25 0 15 12 18 16 0 0
816 449 60 4 23 37 66 32 41 18 2 0 0 0 2 0 0 7 9 13 19 28 37 39 38 29 28 19 20 17 16 22
439 4 3 0 0 4 10 7 0 0 4 0 0 0 0 0 4 9 15 20 34 47 49 27 56 58 60 37 34 34 34 46
60 1 0 0 0 0 0 0 0 2 11 0 0 0 0 0 0 1 3 5 10 30 47 56 88 69 66 54 25 47 56 35
0 0 1 0 0 0 0 0 2 6 0 0 0 0 0 0 0 0 1 7 14 42 78 108 101 67 82 53 54 56 52 49

GFSFLT2_con_mucape_039.txt.gz
CAPE
154 343 371 385 351 249 222 212 218 256 267 251 253 257 287 326 326 241 27 2 0 0 0 0 0 0 0 0 0 0 0 0
366 223 195 203 239 212 170 158 166 162 138 110 124 141 164 87 188 201 39 0 0 0 0 0 0 0 0 0 0 0 0 0
149 173 161 150 154 160 136 145 84 85 88 57 26 5 6 0 0 11 0 0 0 0 0 0 0 0 0 0 0 0 0 0
206 186 100 81 88 48 37 33 4 22 61 70 71 58 15 0 0 0 0 0 0 0 0 0 0 0 0 0 0 0 0 0
236 207 38 1 1 1 3 3 0 12 116 144 173 73 4 0 0 0 0 0 0 0 0 0 0 0 0 0 0 0 0 0
198 160 4 0 0 13 147 169 157 221 309 427 252 285 200 135 4 1 0 0 0 0 0 0 0 0 0 0 0 0 0 0
214 72 0 0 12 158 196 348 352 475 468 420 398 314 156 16 0 0 0 0 0 0 0 0 0 0 0 0 0 0 0 0
191 17 3 172 347 322 366 431 475 549 574 495 335 197 155 32 4 0 0 1 0 0 0 0 0 0 0 0 0 0 0 0
15 25 246 373 326 263 313 321 334 361 122 36 55 12 1 0 6 0 0 0 0 0 0 0 0 0 0 0 0 0 0 0
29 205 432 343 250 159 163 87 0 5 0 8 4 0 7 0 0 0 0 0 0 0 0 0 0 0 0 0 0 0 0 0
114 431 468 288 222 128 41 0 0 0 0 4 4 2 0 0 0 0 0 0 0 0 0 0 0 0 0 0 0 0 0 0
430 505 471 315 166 35 10 0 0 0 0 0 0 6 8 1 0 0 0 0 0 0 0 0 0 0 0 0 0 0 0 0
475 451 332 117 59 32 60 9 1 0 0 0 0 0 0 0 0 0 0 0 0 0 0 0 0 0 0 0 0 0 0 0
477 516 275 143 44 52 76 7 0 0 0 0 0 0 0 0 0 0 0 0 0 0 0 0 0 0 0 0 0 0 0 0
520 558 401 130 48 70 27 0 0 0 0 0 0 0 0 0 0 0 0 0 0 0 0 0 0 0 0 0 0 0 0 0
675 558 461 162 195 203 3 0 0 0 0 0 0 0 0 0 0 0 0 0 0 0 0 0 0 0 0 0 0 0 0 0
638 569 410 207 329 35 0 0 0 0 0 0 0 0 0 0 0 0 0 0 0 0 0 0 0 0 0 0 0 0 0 0
745 572 336 456 485 4 0 0 0 0 0 0 2 2 0 0 0 0 0 0 0 0 0 0 0 0 0 0 0 0 0 0
492 460 464 427 75 70 1 0 0 1 5 5 0 3 4 2 1 0 0 0 0 0 0 0 0 0 9 18 18 16 8 3
598 637 469 144 137 87 4 7 8 8 8 2 4 6 16 2 0 0 0 0 0 0 0 0 0 0 3 10 5 13 6 5

GFSFLT2_con_mucape_042.txt.gz
CAPE
51 176 349 278 228 207 161 190 220 228 199 199 219 225 258 281 194 72 27 0 0 0 0 0 0 0 0 0 0 0 0 0
118 79 170 281 180 156 163 164 167 133 131 145 148 182 207 232 156 57 5 0 0 0 0 0 0 0 0 0 0 0 0 0
120 66 206 242 120 96 129 173 123 121 123 81 8 0 0 2 4 6 0 0 0 0 0 0 0 0 0 0 0 0 0 0
104 138 190 155 86 42 22 32 18 8 5 0 9 0 0 0 0 0 0 0 0 0 0 0 0 0 0 0 0 0 0 0
131 166 131 70 34 4 0 0 23 47 39 14 21 13 0 0 0 0 0 0 0 0 0 0 0 0 0 0 0 0 0 0
169 106 40 7 0 0 0 0 27 120 122 115 117 25 58 3 0 0 0 0 0 0 0 0 0 0 0 0 0 0 0 0
151 33 11 3 0 0 5 8 42 181 319 318 286 204 121 0 0 0 0 0 0 0 0 0 0 0 0 0 0 0 0 0
240 70 4 3 34 151 148 188 340 404 390 322 209 181 42 7 3 0 0 0 0 0 0 0 0 0 0 0 0 0 0 0
250 40 5 124 163 202 320 444 433 488 427 308 255 177 64 42 0 0 0 0 0 0 0 0 0 0 0 0 0 0 0 0
199 106 147 231 231 333 455 335 370 296 0 0 27 43 0 0 0 0 0 0 0 0 0 0 0 0 0 0 0 0 0 0
137 255 264 315 362 311 311 191 84 0 0 0 0 0 0 0 0 0 0 0 0 0 0 0 0 0 0 0 0 0 0 0
220 357 341 383 381 280 110 31 0 0 0 0 0 0 0 0 0 0 0 0 0 0 0 0 0 0 0 0 0 0 0 0
237 392 392 357 299 204 84 40 3 0 0 0 0 0 0 0 0 0 0 0 0 0 0 0 0 0 0 0 0 0 0 0
219 347 425 446 309 168 35 50 7 1 0 2 8 0 0 0 0 0 0 0 0 0 0 0 0 0 0 0 0 0 0 0
291 423 482 485 217 78 56 73 28 16 2 0 0 0 0 0 0 0 0 0 0 0 0 0 0 0 0 0 0 0 0 0
359 457 465 270 175 70 46 81 32 11 0 0 0 0 0 0 0 0 0 1 0 0 0 0 0 0 0 0 0 0 0 0
423 486 467 387 290 130 58 63 2 0 0 0 0 0 0 0 0 0 0 2 1 0 0 0 0 0 0 0 0 0 0 0
607 602 649 586 250 203 196 81 1 0 0 0 0 3 6 0 0 0 0 5 3 0 0 0 0 0 0 0 0 0 0 0
550 627 540 406 173 340 231 31 17 1 18 14 9 8 1 20 0 1 0 1 0 0 0 0 0 0 0 0 0 0 0 0
731 673 549 423 350 576 150 20 16 56 35 28 29 34 23 8 0 0 0 3 0 0 0 0 0 0 0 0 0 0 0 5

GFSFLT2_con_mucape_045.txt.gz
CAPE
14 48 215 374 330 244 293 399 414 359 301 287 252 197 149 136 92 49 39 10 0 0 0 0 0 0 0 0 0 0 0 0
17 8 188 251 230 243 275 349 356 338 309 242 216 247 190 137 86 33 0 0 0 0 0 0 0 0 0 0 0 0 0 0
18 17 135 190 166 209 329 372 303 219 212 171 47 29 18 0 3 0 0 0 0 2 0 0 0 0 0 0 0 0 0 0
7 19 49 165 83 102 138 127 70 36 20 16 2 0 0 0 0 11 0 0 0 0 0 0 0 0 0 0 0 0 0 0
110 45 200 182 85 81 61 39 8 3 6 5 1 0 0 0 0 0 0 0 0 0 0 0 0 0 0 0 0 0 0 0
76 82 216 161 75 27 15 0 7 18 21 47 34 0 0 0 0 0 0 0 0 0 0 0 0 0 0 0 0 0 0 0
146 162 181 102 36 6 0 27 87 157 134 163 119 39 43 3 1 0 0 0 0 0 0 0 0 0 0 0 0 0 0 0
134 116 78 30 6 1 0 29 102 268 385 314 327 195 93 27 0 0 0 0 0 1 4 0 0 0 0 0 0 0 0 0
114 189 60 1 0 1 16 146 260 359 406 317 182 194 97 66 20 0 0 0 0 2 0 0 0 0 0 0 0 0 0 0
208 307 45 6 19 29 136 329 473 480 421 285 254 215 219 90 38 11 0 0 0 0 0 0 0 0 0 0 0 0 0 0
266 331 33 17 54 206 283 476 529 449 292 37 54 153 68 16 0 3 2 0 0 0 0 0 0 0 0 0 0 0 0 0
332 316 15 30 145 263 427 456 429 262 2 0 0 5 2 0 0 1 0 0 0 0 0 0 0 0 0 0 0 0 0 0
409 370 61 121 293 338 406 385 272 54 0 0 0 6 0 0 0 0 0 0 0 0 0 0 0 0 0 0 0 0 0 0
315 165 200 355 390 374 381 275 102 29 9 0 0 0 0 0 0 0 0 0 0 0 0 0 0 0 0 0 0 0 0 0
259 176 295 364 422 416 363 230 71 53 30 9 3 0 0 0 0 0 0 0 0 0 0 0 0 0 0 0 0 0 0 0
153 118 270 318 399 383 319 199 41 48 65 50 33 18 0 0 0 0 0 0 0 0 0 0 0 0 0 0 0 0 0 0
164 192 186 327 396 441 321 113 57 58 69 55 19 0 0 0 0 0 0 3 18 14 8 0 0 0 0 0 0 0 0 0
106 179 257 250 487 439 221 147 61 65 17 4 0 0 0 0 1 10 14 1 1 5 2 0 0 0 0 0 0 0 0 0
113 190 291 401 466 452 268 140 136 89 36 0 0 0 1 4 20 28 24 21 5 3 2 0 1 0 0 0 0 0 0 0
183 255 272 461 601 665 338 139 324 152 62 35 32 47 19 14 34 26 1 2 6 14 0 0 0 0 0 0 0 0 0 0

GFSFLT2_con_mucape_048.txt.gz
CAPE
87 91 77 196 238 309 346 421 480 421 402 365 279 224 171 139 115 101 73 43 1 0 0 0 0 0 0 0 0 0 0 0
53 31 59 139 212 257 299 297 377 374 384 322 236 213 162 112 74 70 108 64 26 0 0 0 0 0 0 0 0 0 0 0
20 13 130 181 212 298 298 356 343 351 297 256 72 24 3 0 19 29 61 25 3 0 0 0 0 0 0 0 0 0 0 0
22 2 16 111 134 179 211 224 155 104 69 22 5 1 0 0 0 0 48 0 0 0 0 0 0 0 0 0 0 0 0 0
7 2 1 90 110 110 106 76 34 35 36 6 1 0 0 0 0 0 0 0 0 0 0 0 0 0 0 0 0 0 0 0
6 2 0 51 119 81 61 28 9 1 0 2 0 0 0 0 0 0 0 0 0 0 0 0 0 0 0 0 0 0 0 0
0 0 45 143 116 45 26 2 1 2 80 82 38 0 0 0 2 0 0 0 0 0 0 0 0 0 0 0 0 0 0 0
21 80 73 188 57 18 14 3 31 51 75 164 104 12 36 3 9 2 0 0 0 0 0 1 0 0 0 0 0 0 0 0
56 209 117 138 43 0 0 0 83 208 210 230 325 158 118 84 30 25 0 0 7 2 3 0 0 0 0 0 0 0 0 0
123 190 125 90 14 0 0 33 104 199 397 345 294 254 154 116 80 50 25 10 7 0 0 0 0 0 0 0 0 0 0 0
214 235 236 94 2 0 0 26 212 311 283 281 167 193 158 149 26 30 9 23 0 0 0 0 0 0 0 0 0 0 0 0
155 212 312 77 0 0 5 108 322 297 299 308 173 121 69 45 32 17 16 21 0 0 0 0 0 0 0 0 0 0 0 0
137 218 307 45 0 10 100 288 386 343 237 91 0 0 1 3 6 9 25 0 0 0 0 0 0 0 0 0 0 0 0 0
184 300 318 109 29 46 152 276 350 314 232 82 12 1 1 7 15 18 0 0 0 0 0 0 0 0 0 0 0 0 0 0
256 416 410 242 45 56 130 236 282 165 78 53 39 38 16 6 4 0 0 0 0 0 0 0 0 0 0 0 0 0 0 0
411 501 493 389 73 67 234 296 276 126 59 35 15 47 14 0 0 0 0 0 0 0 1 7 3 0 0 0 0 0 0 0
546 571 477 199 95 195 292 320 365 264 57 27 44 43 26 10 0 0 0 0 0 3 4 0 0 0 0 3 0 0 0 0
570 564 467 231 119 279 325 386 199 137 43 35 51 24 21 3 0 0 0 1 19 7 30 0 0 1 9 0 0 0 0 0
537 572 474 143 135 179 293 358 268 165 75 52 27 1 0 0 0 6 7 9 13 6 0 7 0 1 0 0 0 0 0 0
515 532 393 103 123 248 211 374 381 196 82 149 27 12 5 10 15 25 10 0 1 5 13 11 19 4 0 0 0 0 0 0

GFSFLT2_con_mucape_051.txt.gz
CAPE
258 214 124 265 307 332 322 299 310 335 370 293 251 177 110 105 126 115 81 36 14 0 0 0 0 0 0 0 0 0 0 0
183 97 20 1 269 315 405 292 273 286 275 215 195 167 129 135 159 135 48 20 0 0 0 0 0 0 0 0 0 0 0 0
175 70 69 0 249 328 420 405 246 209 189 172 74 22 1 0 24 108 92 4 0 0 0 0 0 0 0 0 0 0 0 0
70 3 3 37 140 276 321 314 223 152 115 87 74 56 6 0 11 59 23 0 0 0 0 0 0 0 0 0 0 0 0 0
35 73 11 1 69 142 198 243 170 101 85 66 53 49 41 0 2 0 0 0 0 0 0 0 0 0 0 0 0 0 0 0
78 5 10 6 113 196 181 115 83 76 64 81 32 17 10 0 0 0 0 0 0 0 0 0 0 0 0 0 0 0 0 0
5 4 2 36 118 120 91 96 79 96 78 117 1 0 0 0 0 0 0 0 0 0 0 0 0 0 0 0 0 0 0 0
2 0 2 60 175 101 121 105 60 74 99 151 28 0 0 0 1 2 1 0 0 0 0 0 0 0 0 0 0 0 0 0
0 0 21 160 190 69 77 39 17 27 64 105 101 2 25 19 32 41 14 10 0 4 9 0 0 0 0 0 0 0 0 0
3 23 107 149 189 46 10 34 105 110 75 100 135 127 78 48 60 58 23 14 29 20 9 0 0 0 0 0 0 0 0 0
21 193 306 157 133 28 30 55 123 172 131 189 210 207 125 96 65 44 16 17 31 34 2 0 0 0 0 0 0 0 0 0
126 295 282 141 67 6 12 29 69 43 96 122 214 110 86 82 64 14 10 31 29 15 0 0 0 0 0 0 0 0 0 0
112 280 267 286 129 27 30 33 47 80 147 125 146 124 81 51 50 41 17 19 9 0 0 0 0 0 0 0 0 0 0 0
138 227 273 283 231 44 34 35 15 73 169 187 100 28 10 1 2 2 4 11 4 0 0 0 0 0 0 0 0 0 0 0
122 209 273 268 249 49 44 23 60 157 235 132 41 45 9 12 14 2 4 2 0 0 0 0 0 0 0 0 0 0 0 0
130 185 203 233 329 50 49 48 80 176 162 110 26 49 23 39 55 1 0 0 0 0 0 0 3 0 3 0 0 0 0 0
266 199 162 300 432 328 80 51 83 113 193 107 36 38 37 95 53 0 0 0 0 0 0 4 0 2 0 0 0 0 0 0
541 355 308 389 504 519 444 149 150 153 128 155 94 49 39 60 27 3 3 0 0 0 0 0 18 6 0 0 0 0 0 0
631 557 483 520 567 497 378 124 87 281 226 131 116 51 60 34 12 11 4 6 0 11 3 0 1 1 0 0 0 0 0 0
795 725 614 645 652 586 400 102 192 295 281 215 127 42 57 24 20 8 1 17 4 19 20 2 0 0 0 0 0 0 0 0

GFSFLT2_con_mucape_054.txt.gz
CAPE
144 180 241 201 222 262 235 318 303 279 265 262 241 228 214 204 185 130 73 67 108 14 0 0 0 0 0 0 0 0 0 0
71 41 206 233 242 235 191 322 315 284 264 231 207 198 203 188 142 139 114 8 0 0 0 0 0 0 0 0 0 0 0 0
244 131 141 125 10 219 308 312 309 247 191 133 76 40 31 16 78 133 100 32 0 0 0 0 0 0 0 0 0 0 0 0
201 183 122 9 1 43 290 304 229 154 109 65 25 45 23 45 76 80 14 0 0 0 0 0 0 0 0 0 0 0 0 0
141 22 20 6 4 0 123 350 232 163 185 68 50 39 32 19 7 0 0 0 0 0 0 0 0 0 0 0 0 0 0 0
10 7 4 0 11 4 25 132 244 173 126 128 96 59 19 27 0 0 0 0 0 0 0 0 0 0 0 0 0 0 0 0
6 7 6 5 95 39 147 240 172 101 133 110 84 76 23 0 5 0 0 0 0 0 0 0 0 0 0 0 0 0 0 0
2 3 6 8 73 64 146 224 144 193 132 140 98 64 77 15 0 0 0 0 0 0 0 0 0 0 0 0 0 0 0 0
12 3 88 128 180 164 201 112 74 64 163 346 164 73 68 23 0 8 15 7 21 1 0 0 0 0 0 0 0 0 0 0
15 3 80 137 249 237 129 67 65 67 296 431 381 225 52 43 21 24 22 29 20 30 1 0 0 0 0 0 0 0 0 0
5 6 36 137 355 362 55 167 103 68 281 397 384 521 317 82 29 20 48 44 3 4 4 4 0 0 0 0 0 0 0 0
0 57 157 338 428 474 199 66 124 246 490 442 367 478 479 226 73 25 33 0 1 4 16 4 0 0 0 0 0 0 0 0
149 194 298 569 507 385 197 77 153 312 492 496 226 272 253 231 74 31 12 0 4 41 11 0 0 0 0 0 0 0 0 0
221 254 454 641 496 349 128 46 117 260 397 142 114 95 58 54 12 3 0 0 10 19 11 0 0 0 0 0 0 0 0 0
392 514 675 842 627 481 209 159 211 270 269 210 84 72 48 20 4 2 2 1 6 22 3 0 0 0 1 0 0 0 0 0
301 347 471 780 821 516 219 112 135 245 296 94 69 58 42 32 15 9 22 38 9 3 0 0 0 0 0 0 4 1 0 0
475 468 501 651 823 836 523 211 127 416 438 189 63 80 44 38 19 33 73 51 13 0 0 0 4 4 1 2 6 0 0 0
1063 722 580 690 770 884 943 688 552 703 460 274 115 50 49 55 56 67 74 38 20 6 2 0 0 1 1 4 0 0 0 0
1457 1181 942 844 944 1008 1063 1017 881 731 519 296 78 56 42 58 88 48 40 21 8 3 0 0 6 4 4 1 0 2 0 0
1562 1368 1271 1047 1133 1137 1073 862 885 667 412 201 106 127 31 41 32 39 14 5 3 6 14 4 3 6 0 0 2 0 0 0

GFSFLT2_con_mucape_057.txt.gz
CAPE
102 64 226 173 136 145 185 340 394 438 369 323 257 203 220 294 300 303 254 173 63 3 0 0 0 0 0 0 0 0 0 1
155 103 103 87 150 122 197 236 269 271 235 203 220 212 200 183 160 222 255 160 41 0 0 0 0 0 0 0 0 0 0 0
154 57 45 128 68 113 169 318 333 205 191 169 91 73 42 45 131 128 113 78 23 0 0 0 0 0 0 0 0 0 0 0
249 17 0 10 10 0 103 207 269 152 135 200 98 115 116 83 114 138 64 15 1 0 0 0 0 0 0 0 0 0 0 0
275 151 86 5 7 27 66 118 203 134 238 216 287 260 227 123 31 2 0 0 0 0 0 0 0 0 0 0 0 0 0 0
43 22 43 11 7 3 43 132 202 208 229 325 366 251 303 185 37 2 0 0 0 0 0 0 0 0 0 0 0 0 0 0
15 37 32 9 4 3 0 70 60 54 166 285 263 204 325 221 184 24 9 0 0 0 0 0 0 0 0 0 0 0 0 0
9 17 4 5 4 4 46 226 213 195 234 301 430 407 390 245 166 38 2 0 0 0 0 0 0 0 0 0 0 0 0 0
3 4 3 7 5 49 130 266 240 203 187 475 312 256 305 200 77 59 8 0 5 4 0 0 0 0 0 0 0 0 0 0
7 0 0 31 9 45 179 238 219 62 181 271 447 213 304 146 106 48 15 16 32 3 5 0 0 0 0 0 0 0 0 0
2 5 51 71 152 148 216 288 152 160 149 366 551 422 204 167 88 92 95 21 8 4 0 3 1 0 0 0 0 0 0 0
6 17 64 204 200 223 99 102 223 106 64 341 536 591 692 298 186 216 80 0 0 0 0 4 6 1 0 0 0 0 0 0
23 41 231 70 102 107 89 13 45 58 162 433 700 529 609 755 537 423 52 0 3 0 0 4 18 1 0 0 0 0 0 0
3 4 19 76 46 38 58 75 8 119 245 506 583 490 484 525 624 433 62 1 2 0 6 4 23 0 0 0 0 0 0 0
48 158 182 207 249 191 133 77 68 70 196 393 475 255 91 71 85 159 44 22 0 4 4 6 29 1 0 0 0 0 0 1
270 280 313 384 492 406 334 135 63 64 228 306 392 83 11 22 35 20 171 86 3 20 50 43 18 0 0 0 0 0 0 0
514 515 593 630 688 572 517 366 171 154 266 394 361 116 21 75 30 35 99 12 38 73 48 22 19 0 0 6 1 8 0 0
955 572 542 553 646 856 968 870 502 267 324 751 457 304 106 61 45 42 44 36 21 30 33 28 9 0 3 0 0 0 5 0
1195 777 728 719 963 960 1035 1083 1126 867 708 1000 581 417 199 37 21 51 31 59 4 23 27 32 0 2 2 1 1 0 0 0
1376 1277 1208 970 991 1149 1218 1294 1329 1406 1025 1060 961 665 241 30 56 56 0 0 4 22 16 10 17 2 13 1 0 0 0 0

GFSFLT2_con_mucape_060.txt.gz
CAPE
0 53 166 185 97 209 340 428 468 450 398 506 661 692 572 378 271 204 135 74 19 1 0 0 0 0 0 0 0 0 0 0
25 0 15 7 4 98 184 233 254 275 210 324 493 452 333 270 209 173 106 55 2 0 0 0 0 0 0 0 0 0 0 0
76 37 0 0 2 61 129 242 250 243 196 130 206 211 100 77 177 154 113 58 5 0 0 0 0 0 0 0 0 0 0 0
189 109 15 1 0 2 3 99 110 201 97 28 3 32 30 83 118 103 85 35 0 0 0 0 0 0 0 0 0 0 0 0
197 110 58 6 0 0 2 58 81 124 238 163 115 67 59 92 23 10 1 0 0 0 0 0 0 0 0 0 0 0 0 0
47 111 31 14 10 27 1 0 102 142 223 251 248 191 103 46 33 4 0 0 0 0 0 0 0 0 0 0 0 0 0 0
60 19 13 26 8 11 3 12 112 163 202 263 278 226 165 76 41 4 0 0 0 0 0 0 0 0 0 0 0 0 0 0
18 51 35 14 10 0 3 1 36 89 253 250 249 217 355 121 172 59 19 0 0 0 0 0 0 0 0 0 0 0 0 0
13 49 43 6 6 27 23 6 66 169 273 293 253 283 341 220 189 195 52 0 0 0 0 0 0 0 0 0 0 0 0 0
0 0 0 0 0 7 18 10 135 147 231 243 227 328 309 280 136 150 44 6 0 1 7 3 0 0 0 0 0 0 0 0
0 0 1 0 2 0 1 77 99 84 53 229 304 306 295 220 208 95 122 2 0 8 3 5 0 0 0 0 0 0 0 0
4 4 0 0 0 0 38 74 79 100 91 304 413 368 179 243 170 165 132 14 12 9 12 12 4 3 5 0 0 0 0 0
1 0 2 0 0 0 18 62 111 102 62 167 427 393 417 333 197 204 140 50 25 5 10 0 3 6 14 9 0 0 0 0
0 0 0 3 10 4 43 1 19 88 43 141 445 552 419 359 344 301 181 63 38 0 14 14 8 7 9 12 0 1 1 0
0 0 0 0 72 35 17 0 0 0 37 68 386 405 419 391 477 403 139 121 40 1 6 26 32 10 8 8 0 0 0 0
0 0 7 5 17 34 7 21 11 2 34 77 347 404 294 198 189 100 84 15 11 0 15 6 43 15 3 12 0 0 0 0
0 0 11 80 74 235 148 151 39 44 69 154 396 330 170 39 14 1 17 7 20 39 7 2 21 21 22 10 0 1 1 0
197 238 241 236 188 252 579 546 351 113 139 178 369 271 131 13 2 1 41 36 32 37 19 30 9 0 2 22 2 0 0 0
414 383 422 435 578 754 687 637 865 317 399 528 346 264 263 193 52 37 21 14 22 16 8 18 0 0 2 0 0 0 10 0
505 502 472 526 567 710 984 775 704 708 531 528 452 346 244 186 89 52 30 25 63 10 4 8 0 0 0 7 9 0 2 8

GFSFLT2_con_mucape_063.txt.gz
CAPE
97 30 37 196 108 207 191 515 636 908 1073 976 938 714 340 278 170 118 65 10 0 0 0 0 0 0 0 0 0 0 0 0
52 0 2 0 29 2 97 185 366 527 646 576 522 292 220 141 115 88 52 28 0 0 0 0 0 0 0 0 0 0 0 0
75 17 8 0 0 2 8 222 237 341 330 314 278 248 52 22 80 83 71 39 18 0 0 0 0 0 0 0 0 0 0 0
56 30 66 13 0 0 1 29 71 194 167 211 157 201 57 52 102 125 68 43 24 0 0 0 0 0 0 0 0 0 0 0
69 45 29 1 0 0 0 0 0 43 86 77 112 74 38 26 24 8 3 12 0 0 0 0 0 0 0 0 0 0 0 0
19 56 4 4 0 0 1 0 29 54 50 31 26 27 5 1 0 0 1 2 6 0 0 0 0 0 0 0 0 0 0 0
25 22 10 11 16 16 13 1 42 58 84 92 63 47 0 4 0 0 0 1 0 0 0 0 0 0 0 0 0 0 0 0
19 33 28 15 14 2 7 4 9 33 53 100 131 101 31 13 0 0 0 0 0 0 0 0 0 0 0 0 0 0 0 0
2 12 9 12 12 7 4 4 15 10 61 99 167 169 70 35 19 31 3 0 0 0 0 0 0 0 0 0 0 0 0 0
17 6 5 4 14 8 1 3 0 1 70 134 134 149 164 80 99 61 17 4 0 0 0 0 0 0 0 0 0 0 0 0
8 7 7 0 0 4 10 2 0 1 65 98 82 117 161 80 47 23 14 4 0 0 0 0 0 0 0 0 0 0 0 0
0 3 4 0 1 4 8 5 28 34 24 31 55 51 144 81 61 90 19 5 1 7 0 6 2 3 0 1 0 0 0 0
0 0 0 2 0 0 0 0 8 2 17 0 75 126 96 88 119 88 43 11 7 12 0 16 25 25 5 2 2 2 0 0
0 0 0 0 0 0 0 0 0 1 9 5 117 184 208 114 84 109 115 52 47 42 31 5 20 36 28 19 0 3 0 0
0 0 0 0 0 0 0 0 9 8 0 0 34 143 161 274 253 161 83 98 53 42 29 1 0 22 25 29 14 2 0 0
0 0 0 0 0 0 0 0 0 0 0 0 64 269 315 326 299 268 170 152 126 78 19 26 14 6 2 14 13 18 0 0
0 0 0 0 0 0 0 0 0 0 0 0 17 155 258 291 283 261 239 189 102 31 40 31 35 22 0 3 2 0 0 0
0 0 0 0 0 2 9 0 1 4 3 0 15 143 215 248 269 210 181 92 19 23 41 50 41 29 7 0 2 0 0 0
0 0 0 0 0 0 0 21 14 8 7 15 76 178 263 296 190 92 44 23 17 50 69 51 42 42 24 0 0 0 0 0
5 0 0 0 0 2 0 39 160 175 68 47 48 134 178 204 171 119 57 20 26 27 36 30 53 35 29 2 0 0 2 8

GFSFLT2_con_mucape_066.txt.gz
CAPE
299 109 10 30 17 129 374 469 627 833 826 712 555 298 171 67 23 0 0 0 0 0 0 0 0 0 0 0 0 0 0 0
141 82 75 29 0 10 5 211 610 538 426 323 190 83 73 32 0 0 0 0 0 0 0 0 0 0 0 0 0 0 0 0
137 79 64 0 0 17 0 97 316 253 277 170 57 0 0 0 4 0 0 0 0 0 0 0 0 0 0 0 0 0 0 0
178 80 11 31 0 0 0 121 130 158 173 149 70 0 0 0 2 4 9 6 0 0 0 0 0 0 0 0 0 0 0 0
73 45 15 79 0 0 0 7 10 70 158 174 103 2 0 3 1 0 0 0 1 0 0 0 0 0 0 0 0 0 0 0
60 88 35 4 0 0 0 13 43 43 50 113 28 1 0 0 0 0 0 0 0 0 0 0 0 0 0 0 0 0 0 0
12 12 99 10 6 0 0 28 2 20 31 48 5 2 0 0 0 0 0 1 0 0 0 0 0 0 0 0 0 0 0 0
32 53 73 23 8 8 0 7 0 6 22 4 0 0 0 0 0 0 0 0 0 0 0 0 0 0 0 0 0 0 0 0
27 18 33 13 14 1 12 2 0 10 21 12 10 2 0 0 0 0 0 0 0 0 0 0 0 0 0 0 0 0 0 0
26 6 30 30 28 18 4 5 6 36 66 58 23 25 14 0 0 2 1 6 0 0 0 0 0 0 0 0 0 0 0 0
5 20 18 19 53 15 14 4 15 48 43 83 74 80 48 21 66 63 30 6 0 0 0 0 0 0 0 0 0 0 0 0
15 13 15 18 2 3 3 15 3 3 12 74 64 76 111 55 82 75 38 16 1 0 0 0 0 0 0 0 0 0 0 0
0 9 9 1 0 0 0 3 2 0 3 23 35 8 104 93 56 70 29 3 2 0 0 0 0 0 0 0 1 0 0 0
0 0 0 0 0 0 4 3 0 0 0 0 0 7 24 108 76 42 36 20 23 7 2 4 1 1 3 4 8 1 0 0
0 0 0 0 0 0 0 0 0 0 0 0 0 7 43 50 69 48 49 34 28 15 26 25 19 28 6 13 7 0 1 0
0 0 0 0 0 0 0 0 0 0 0 0 0 10 92 95 64 53 11 45 57 43 38 46 29 26 17 26 6 2 4 0
0 0 0 0 0 0 0 0 0 0 0 0 0 0 44 75 118 157 132 111 22 41 48 65 43 28 24 32 38 6 6 3
0 0 0 0 0 0 0 0 0 0 0 0 0 0 26 78 99 141 200 192 148 94 93 78 27 7 30 42 52 5 7 3
0 0 0 0 0 0 0 0 0 0 0 0 0 3 39 111 204 227 249 241 168 108 64 26 11 27 66 20 9 1 0 0
0 0 0 0 0 0 0 0 4 27 44 42 33 36 20 60 74 98 133 183 124 78 71 15 42 77 36 28 13 0 0 0

GFSFLT2_con_mucape_069.txt.gz
CAPE
366 103 14 40 9 31 263 41 400 756 561 549 485 282 80 3 0 0 0 0 0 0 0 0 0 0 0 0 0 0 0 0
217 139 17 0 4 0 33 13 482 490 449 350 200 105 10 0 0 0 0 0 0 0 0 0 0 0 0 0 0 0 0 0
175 138 77 27 42 0 5 46 403 369 325 187 70 0 0 0 0 0 0 0 0 0 0 5 4 0 0 0 0 0 0 0
399 191 83 44 6 0 0 1 67 180 161 100 21 0 0 0 0 0 0 0 0 0 0 0 0 0 0 0 0 0 0 0
27 43 0 18 2 0 0 0 3 89 128 68 14 0 0 0 0 0 0 0 0 0 0 0 0 0 0 0 0 0 0 0
46 5 0 3 0 0 0 46 50 63 73 30 6 0 0 0 0 0 0 0 0 0 0 0 0 0 0 0 0 0 0 0
14 13 14 31 0 0 0 0 23 8 53 49 5 2 2 1 0 0 0 0 0 0 0 0 0 0 0 0 0 0 0 0
7 14 20 25 0 0 0 0 2 34 49 16 0 3 2 4 1 0 0 0 0 0 0 0 0 0 0 0 0 0 0 0
1 32 14 39 4 11 3 4 19 52 43 1 0 0 3 2 1 0 0 0 2 0 0 0 0 0 0 0 0 0 0 0
5 29 18 16 4 11 44 53 51 47 34 34 3 1 0 0 0 0 0 0 0 0 0 0 0 0 0 0 0 0 0 0
0 1 29 9 32 11 18 5 67 45 45 13 8 0 0 0 0 0 0 6 1 0 0 0 0 0 0 0 0 0 0 0
0 6 10 21 24 14 13 7 76 75 62 42 23 8 4 2 10 22 16 13 2 7 11 0 0 0 0 0 0 0 0 0
3 10 17 8 13 15 25 6 5 87 102 101 90 65 55 29 85 99 85 55 48 13 12 8 0 0 0 0 0 0 0 0
0 0 1 13 15 9 10 2 14 23 32 76 76 62 83 137 83 105 73 47 26 45 10 0 1 2 6 4 1 0 0 1
0 0 6 2 0 18 18 30 5 0 0 4 37 53 58 44 116 71 59 52 42 22 15 18 27 20 18 24 27 0 9 4
0 0 0 0 0 0 0 0 0 1 2 0 3 8 2 44 50 89 89 41 58 54 41 30 35 46 37 26 35 29 23 0
0 0 0 0 0 0 0 0 0 0 0 0 0 0 0 13 54 39 49 39 61 49 53 50 46 44 45 50 41 22 28 14
0 0 0 0 0 0 0 0 0 0 0 0 0 0 0 0 12 58 68 77 87 62 56 58 45 45 52 37 34 19 24 1
0 0 0 0 0 0 0 0 0 0 0 0 0 0 0 0 4 22 57 84 96 140 148 171 115 76 85 50 36 33 8 3
0 0 0 0 0 0 0 0 0 0 0 0 0 0 0 0 21 26 16 35 76 137 160 111 113 97 80 63 41 48 11 7

GFSFLT2_con_mucape_072.txt.gz
CAPE
889 497 302 249 213 77 52 326 502 589 504 661 452 270 214 152 32 0 0 60 99 2 0 0 0 0 0 0 0 0 0 0
815 439 215 133 88 10 13 161 393 281 337 418 255 142 120 0 0 0 0 0 25 0 0 0 0 0 0 0 0 0 0 0
496 271 138 23 0 0 0 157 212 199 285 257 166 45 1 0 0 0 0 0 12 12 0 0 0 0 0 0 0 0 0 0
287 192 124 69 54 1 28 94 30 35 102 146 100 4 0 0 0 0 0 0 15 11 0 0 0 0 0 0 0 0 0 0
406 284 124 69 62 6 27 58 71 77 79 136 21 2 3 0 0 0 0 0 0 4 0 0 0 0 0 0 0 0 0 0
82 0 20 42 37 0 0 11 54 29 40 65 0 0 0 0 0 0 0 0 0 0 0 0 0 0 0 0 0 0 0 0
46 15 2 18 2 0 0 2 15 42 40 12 0 0 1 3 0 0 0 0 0 0 0 0 0 0 0 0 0 0 0 0
11 24 17 10 14 0 0 1 21 41 50 1 0 9 15 14 0 0 0 0 0 0 0 0 0 0 0 0 0 0 0 0
12 24 61 13 23 1 0 49 44 34 37 17 3 14 18 4 0 3 3 3 0 2 1 0 0 0 0 0 0 0 0 0
3 17 40 12 6 2 0 3 31 3 65 17 5 10 7 1 11 19 16 13 0 14 6 0 0 0 0 0 0 0 0 0
4 16 29 23 4 2 2 2 3 38 21 25 9 3 3 13 11 11 1 1 6 14 6 0 0 0 0 0 0 0 0 0
0 4 11 12 6 7 15 2 71 42 2 2 2 1 6 13 13 8 3 1 16 34 19 10 1 0 0 0 0 0 0 0
0 11 2 6 14 9 2 4 51 42 15 5 1 1 0 0 0 2 8 29 46 33 29 29 9 0 0 0 0 0 0 0
0 0 1 0 11 17 25 23 23 5 26 19 29 26 10 6 15 59 69 102 81 56 22 10 12 12 0 0 0 0 0 3
0 0 5 3 16 25 12 8 34 0 51 52 46 66 66 72 52 92 136 139 94 54 24 15 26 19 16 25 11 13 2 4
0 0 0 1 1 2 4 11 0 2 3 15 33 59 57 90 123 126 125 85 59 35 23 28 32 18 16 26 26 25 25 0
0 0 0 0 0 1 5 0 0 0 3 7 4 41 31 36 25 51 52 81 87 74 48 34 29 33 43 45 51 49 30 45
0 0 0 0 0 0 1 0 0 0 0 0 0 0 1 4 0 15 47 81 101 102 103 84 83 49 54 48 57 42 30 48
0 0 0 0 0 0 0 0 0 0 0 0 0 0 0 0 0 0 31 65 96 120 125 130 135 117 103 96 70 41 53 55
0 0 0 0 0 0 0 0 0 0 0 0 0 0 0 0 0 1 19 34 48 64 88 89 104 95 59 52 62 53 46 12

GFSFLT2_con_mucape_075.txt.gz
CAPE
611 588 399 262 205 129 100 450 566 589 683 707 493 429 309 366 125 33 120 326 263 126 3 0 0 0 0 0 0 0 3 9
328 377 280 202 125 86 61 277 432 442 507 386 176 217 252 89 0 135 330 239 125 3 0 0 0 0 0 0 0 0 1 3
442 321 195 150 172 225 110 307 320 285 271 180 62 91 76 20 0 82 247 149 40 0 0 0 0 0 0 0 0 0 0 4
474 402 277 198 166 134 53 18 266 191 121 77 16 14 32 10 14 24 156 110 26 4 0 0 0 0 0 0 0 0 0 1
521 308 312 174 109 79 41 34 88 57 62 78 15 11 15 4 5 0 100 102 0 2 3 0 0 0 0 0 0 0 1 3
175 169 167 89 93 56 17 1 3 4 3 8 13 0 0 0 0 0 0 54 78 18 1 0 0 0 0 0 0 0 0 0
20 1 0 6 38 12 37 20 5 12 51 0 4 0 0 0 0 0 0 0 0 0 0 0 0 0 0 0 0 0 0 0
19 7 3 1 14 17 38 26 23 3 5 4 0 0 1 0 0 0 0 0 0 0 0 0 0 0 0 0 0 0 0 0
40 20 18 17 16 23 54 19 20 11 18 32 2 0 0 12 2 0 0 0 0 0 0 0 0 0 0 0 0 0 0 0
64 6 27 25 26 23 11 24 3 11 44 10 3 2 23 0 0 1 0 1 0 0 0 0 0 0 0 0 0 0 0 0
2 7 5 19 26 10 4 13 5 22 20 2 6 24 16 16 2 10 5 0 6 15 12 13 1 0 0 0 0 0 0 0
7 17 10 24 10 11 1 21 46 48 20 7 15 17 24 13 10 28 8 137 6 6 26 49 23 1 0 0 0 0 0 0
0 13 3 0 5 3 1 0 19 26 42 4 17 29 18 32 11 8 8 17 20 9 23 31 35 29 6 0 0 0 0 0
0 0 4 0 0 1 5 3 12 33 43 8 14 7 4 12 8 34 12 54 20 15 42 33 35 25 16 20 2 0 2 3
0 0 0 0 0 2 4 6 5 3 5 0 0 1 3 1 34 77 74 59 59 53 58 50 34 27 33 27 35 27 19 10
0 0 0 0 2 4 4 6 0 0 0 0 0 0 17 39 52 59 125 103 112 92 103 81 38 21 24 39 29 28 25 21
0 0 0 0 0 0 8 26 9 1 0 0 0 0 1 36 68 148 172 144 187 116 99 70 52 22 22 11 11 21 20 29
0 0 0 0 0 0 7 15 7 0 0 3 9 5 5 49 68 126 191 254 253 236 138 87 74 60 26 39 45 29 24 32
0 0 0 0 0 0 0 0 3 1 0 0 5 0 6 27 23 41 77 113 157 173 199 78 69 46 63 68 62 52 64 70
0 0 0 0 0 0 0 0 0 0 0 0 0 0 1 16 19 22 30 50 85 133 151 138 106 43 18 15 29 29 42 77

GFSFLT2_con_mucape_078.txt.gz
CAPE
1248 1509 751 559 315 403 593 737 892 809 715 615 885 831 858 778 613 633 455 430 120 10 7 2 0 0 0 0 0 3 4 1
585 1028 699 594 358 118 172 494 347 427 472 502 422 462 546 404 285 480 463 325 100 3 2 1 0 0 0 0 0 0 0 1
427 258 373 335 171 111 70 168 313 286 313 252 242 444 231 201 181 325 240 142 64 3 3 1 0 0 0 0 0 0 1 1
439 255 206 123 71 80 193 240 422 325 338 200 190 136 138 223 341 214 123 20 0 1 0 0 0 0 0 0 0 1 8 6
179 238 172 120 133 66 77 285 256 216 146 47 133 102 214 287 390 285 106 0 0 0 0 0 0 0 0 0 0 0 11 7
169 314 177 73 153 83 44 204 218 238 52 6 25 60 155 246 296 163 67 1 0 0 0 0 0 0 0 0 0 0 4 6
270 125 61 52 50 50 64 66 84 54 24 2 28 98 73 65 181 217 130 89 37 6 7 0 0 0 0 0 0 0 0 11
102 25 10 17 6 6 5 28 13 18 4 5 55 72 50 33 23 70 114 190 89 42 24 0 0 0 0 0 0 0 3 8
26 51 25 2 2 10 30 43 4 13 10 15 0 36 45 4 4 5 13 66 41 32 7 0 0 0 0 0 0 0 2 6
28 48 5 10 16 22 31 24 13 16 8 3 1 25 26 16 3 0 0 2 7 6 4 0 0 0 0 0 0 0 0 1
42 21 4 14 6 12 17 12 23 6 6 6 5 18 18 27 14 9 0 0 0 0 0 0 0 0 0 0 0 0 0 0
44 17 13 0 30 9 2 12 3 5 3 0 0 7 78 43 2 2 0 0 0 0 0 0 0 0 0 0 0 0 0 0
26 1 1 3 5 0 0 4 2 4 0 1 1 0 17 39 56 24 3 2 2 9 9 7 0 3 0 0 0 0 0 0
17 0 0 0 0 3 2 0 2 3 1 10 5 3 7 12 36 54 47 52 10 9 7 9 29 26 13 10 20 6 7 0
1 0 0 0 0 0 3 4 0 0 0 0 8 1 7 6 17 44 22 61 45 55 15 11 62 21 13 53 33 52 37 17
0 0 0 0 0 0 4 3 0 0 2 1 0 7 11 34 15 95 91 86 115 152 93 145 166 129 29 29 60 38 39 159
1 0 0 0 1 0 7 10 9 2 0 0 2 0 29 11 35 45 82 195 177 234 203 165 194 225 186 148 38 7 14 20
11 1 0 0 0 0 3 13 14 3 1 0 1 2 3 8 13 106 126 256 233 329 382 336 296 230 292 157 71 28 103 128
9 8 0 0 4 0 0 1 0 3 1 3 0 0 0 0 1 31 136 219 323 315 407 425 303 280 279 246 170 179 251 282
4 2 7 10 0 21 26 17 2 21 61 47 14 5 5 6 2 22 99 167 258 228 401 361 355 339 300 285 260 308 272 174

GFSFLT2_con_mucape_081.txt.gz
CAPE
1863 1541 928 363 114 76 284 198 28 347 647 827 710 781 873 799 686 680 461 180 114 40 8 0 0 0 0 0 0 2 3 7
1661 1241 858 522 244 127 147 305 243 261 545 428 399 450 598 568 430 473 332 183 76 13 4 0 0 0 0 0 0 0 2 4
621 800 805 447 417 96 145 182 283 225 392 297 212 271 180 352 253 311 263 149 52 10 3 0 0 0 0 0 0 7 6 10
377 427 441 406 203 312 334 406 568 494 459 446 244 275 160 295 318 261 172 89 18 3 0 0 0 0 0 0 4 8 11 5
119 245 170 334 146 206 269 678 971 967 595 286 72 174 160 88 332 284 179 41 0 0 0 0 0 0 0 1 5 17 20 3
105 72 90 165 137 80 205 306 492 425 478 125 103 84 57 153 194 178 179 0 0 0 0 3 0 0 0 2 1 25 24 3
226 74 54 159 34 32 12 240 248 330 288 201 20 13 79 57 114 262 124 39 0 0 0 0 1 0 0 2 4 28 22 6
305 109 50 52 75 113 71 29 81 186 11 41 59 2 28 6 37 134 228 161 61 17 10 1 0 0 1 3 7 23 28 9
121 101 11 22 19 15 0 0 0 1 9 6 6 5 41 93 83 162 298 235 251 140 39 0 0 0 0 5 6 16 16 27
109 41 33 38 25 2 4 7 2 1 6 3 5 6 58 60 77 131 269 266 184 120 38 0 2 0 0 3 5 5 18 27
54 79 45 62 67 14 9 4 2 3 3 6 4 0 0 5 48 121 145 106 100 112 94 79 13 3 1 0 2 0 19 6
11 44 30 39 8 31 20 1 2 3 4 4 2 12 1 2 32 63 59 15 57 98 102 65 35 3 0 0 0 0 1 15
15 25 0 11 0 15 3 5 0 9 0 6 4 0 40 37 70 73 62 16 10 68 30 46 5 4 0 0 0 0 0 0
7 23 0 0 6 1 0 0 0 2 3 3 3 3 36 141 158 147 45 24 67 64 52 56 15 17 0 0 0 0 0 0
7 8 2 0 7 2 0 2 0 0 1 0 0 0 85 154 158 131 94 191 140 233 225 206 146 22 17 106 146 169 114 15
8 5 1 0 0 0 0 2 0 2 2 2 0 0 61 78 113 112 170 170 206 191 179 194 158 111 5 19 108 178 104 30
7 7 9 0 0 1 0 1 4 4 0 0 2 2 2 13 56 99 86 105 253 233 192 131 191 243 180 140 130 141 118 66
5 14 0 0 0 0 27 15 7 2 1 2 0 1 0 31 59 24 59 79 199 269 313 230 230 278 267 333 232 147 91 20
0 7 4 17 0 0 24 58 7 8 2 0 1 1 0 0 0 37 32 67 219 321 296 348 294 303 223 235 136 185 118 225
2 1 8 12 0 0 23 42 39 35 3 5 0 0 0 0 0 1 3 34 101 320 294 315 573 435 479 296 181 354 289 310

GFSFLT2_con_mucape_084.txt.gz
CAPE
1487 1782 1043 736 328 229 243 176 47 3 2 13 1114 1002 972 911 679 811 696 434 183 40 7 6 2 0 0 0 0 39 0 0
1471 1442 1110 663 384 155 186 102 50 67 33 109 385 393 428 371 478 435 441 235 69 17 1 0 0 0 0 0 0 7 0 0
702 877 722 552 372 132 43 220 222 158 36 133 200 272 261 189 344 254 190 130 65 8 0 0 0 0 0 0 0 5 0 0
323 688 526 480 409 51 90 107 251 179 2 121 175 183 117 125 200 179 131 71 11 3 0 0 0 0 0 0 0 15 0 0
119 259 315 453 124 294 398 243 336 332 131 119 134 134 128 92 108 122 60 32 2 0 0 0 0 0 0 0 2 11 0 0
451 40 139 410 173 65 224 293 213 241 199 111 101 51 77 22 46 89 40 0 0 0 0 0 0 0 0 0 12 1 0 0
166 121 19 27 89 119 60 208 189 148 215 88 61 46 24 94 113 72 57 0 0 0 0 0 0 0 0 3 21 1 0 0
359 221 41 0 9 46 59 50 185 151 148 191 69 23 29 50 69 59 44 0 1 0 0 0 0 0 0 0 16 2 0 0
372 200 75 7 52 8 9 9 6 77 98 95 9 15 18 54 12 45 35 17 0 4 2 2 1 0 0 3 14 19 0 0
279 111 16 22 8 8 0 6 0 0 0 45 15 12 43 20 6 9 91 154 81 23 4 0 0 0 0 1 6 29 8 0
170 56 27 27 25 5 4 4 2 4 9 11 11 27 30 30 14 9 53 98 90 64 27 0 0 1 0 2 1 13 22 5
116 55 18 37 35 1 4 7 0 0 1 1 6 8 3 7 5 15 37 55 98 64 13 5 1 0 0 9 21 20 0 8
5 12 14 17 0 0 0 3 0 0 0 3 12 6 4 6 12 22 66 68 86 25 10 0 0 0 0 0 19 25 5 3
0 6 11 0 0 0 0 6 0 0 4 3 3 5 8 4 11 2 4 49 60 53 14 6 0 0 0 0 0 0 0 1
1 5 6 0 0 1 0 0 28 6 0 1 3 1 1 4 3 1 0 10 33 34 3 0 0 0 0 17 18 2 0 0
0 1 2 0 0 0 1 0 0 0 0 2 2 0 0 0 0 3 39 32 45 11 25 1 55 0 4 36 70 69 50 24
0 2 7 0 0 0 0 0 3 0 2 4 0 0 0 0 2 36 26 114 98 88 96 71 95 90 20 35 41 84 83 57
0 1 4 4 0 0 0 0 3 2 1 0 6 7 1 0 50 60 77 94 93 102 95 88 58 86 126 119 66 71 92 47
0 3 3 4 0 0 0 0 4 1 7 4 0 0 0 0 3 16 54 70 113 106 67 82 108 76 75 49 115 140 101 52
0 4 3 4 4 0 1 0 0 0 1 0 0 0 0 0 0 0 3 34 63 81 48 32 79 104 89 61 58 84 59 48

GFSFLT2_con_mucape_087.txt.gz
CAPE
1171 1407 1188 919 905 988 793 643 501 157 20 0 2 13 713 1037 925 885 824 597 415 210 87 40 0 0 0 0 0 0 0 0
1051 1065 1101 910 687 390 319 202 105 39 56 5 9 16 344 468 606 667 475 393 224 100 27 0 0 0 0 0 0 0 0 0
731 964 904 637 535 347 248 121 73 89 68 39 1 120 214 239 374 396 374 205 122 66 9 0 0 0 0 0 0 0 0 0
236 664 866 363 280 203 65 48 95 47 0 31 25 142 109 182 186 213 202 120 58 3 0 0 0 0 0 0 0 0 0 0
39 438 543 530 179 68 0 19 54 39 5 58 126 91 106 93 95 89 66 12 0 0 0 0 0 0 0 0 0 0 0 0
0 139 228 283 215 128 160 95 144 62 38 65 71 98 61 57 31 42 12 1 0 0 0 0 0 0 0 1 0 0 0 0
0 0 98 150 99 81 43 65 117 113 48 40 63 42 15 32 14 2 13 0 0 0 0 0 0 0 0 0 0 0 0 0
13 7 40 74 25 0 4 13 9 95 81 54 39 37 26 24 24 12 1 0 0 0 0 0 0 0 0 0 0 0 0 0
25 8 0 21 14 4 4 6 5 2 45 64 32 35 25 56 24 16 5 0 0 0 0 0 0 0 0 0 0 2 0 0
102 56 3 12 64 24 6 0 0 12 63 46 34 44 64 35 38 28 12 1 0 0 0 0 0 0 2 0 7 2 0 0
81 33 2 1 22 4 0 0 3 3 5 55 73 62 80 64 40 25 16 6 4 9 5 4 0 0 1 3 8 4 0 0
8 0 0 7 3 6 2 0 2 0 0 3 45 20 35 65 50 62 23 0 7 26 20 0 0 0 3 1 10 6 4 0
0 0 0 1 0 0 0 0 0 0 0 8 22 22 30 19 6 8 15 0 41 53 14 0 0 13 14 17 15 50 19 1
0 0 0 2 0 0 0 0 0 0 0 0 8 13 31 4 1 5 3 21 48 56 38 6 16 9 6 21 9 6 1 18
0 0 0 0 11 8 0 0 0 0 0 0 5 21 35 4 3 21 19 38 57 72 46 4 4 6 13 0 0 0 2 6
0 0 0 0 12 7 0 0 0 0 2 5 7 11 16 13 11 11 15 20 49 45 0 1 5 0 0 10 11 11 0 0
0 0 0 4 0 7 0 0 0 0 9 0 11 15 4 3 3 9 12 1 0 0 5 11 12 0 0 0 48 33 17 5
0 0 1 4 0 4 0 0 0 0 0 0 9 5 2 0 0 0 5 4 1 3 23 15 48 22 2 12 37 35 29 42
0 0 1 12 0 1 0 0 0 0 1 8 11 9 0 0 0 0 0 1 26 11 22 41 66 99 54 23 47 25 45 44
6 0 0 1 2 1 2 3 0 0 0 3 12 14 2 1 1 0 0 16 42 38 39 60 68 57 25 33 51 34 37 52

GFSFLT2_con_mucape_093.txt.gz
CAPE
1479 1349 1319 1797 2021 2005 1840 1673 1355 1082 899 679 763 379 312 294 435 656 721 682 587 542 467 311 123 18 0 0 0 0 0 0
1130 974 935 1016 1440 1898 1635 1446 1226 968 618 367 305 353 442 427 319 289 559 661 691 465 344 63 0 0 0 0 0 0 0 0
892 714 702 721 903 1253 1254 1030 866 835 580 395 202 102 92 89 148 204 209 337 322 359 148 0 0 0 0 0 0 0 0 0
719 565 538 451 580 1045 1100 838 722 725 511 206 57 41 31 38 77 105 236 192 176 160 46 4 4 2 0 0 0 0 0 0
653 650 425 361 171 320 681 453 338 133 43 23 1 0 9 9 63 126 133 139 72 80 39 6 14 0 0 0 0 0 0 0
340 557 481 271 168 286 327 200 27 2 0 0 10 19 14 98 101 118 75 42 59 39 18 9 2 0 0 0 0 0 0 0
56 382 413 277 186 104 105 79 14 46 0 0 34 42 27 78 59 40 19 42 68 56 0 0 0 0 0 0 0 0 0 0
23 71 252 169 142 74 19 37 21 1 0 1 55 26 42 40 77 55 21 73 69 63 1 0 0 0 0 0 0 0 0 0
17 62 137 150 162 95 126 167 199 220 5 1 136 44 40 51 60 47 72 72 40 11 5 0 0 0 0 0 0 0 0 0
15 35 33 51 84 108 123 117 139 264 98 37 49 81 20 32 39 27 37 55 5 0 0 0 0 0 0 0 0 0 0 0
34 0 31 15 57 25 4 28 86 131 96 42 36 60 51 27 35 32 44 30 0 0 0 6 0 0 0 0 0 0 0 0
50 0 9 30 28 0 0 6 28 33 41 67 43 57 83 49 38 30 40 6 10 0 0 3 0 0 0 0 0 0 0 0
80 28 0 19 0 0 1 0 6 8 7 10 69 40 71 33 53 28 27 26 8 11 9 0 0 0 3 3 4 2 0 0
93 39 10 2 0 0 0 0 0 0 0 0 0 16 31 45 60 43 55 28 18 5 2 0 5 2 1 13 8 11 12 4
113 52 37 7 0 0 0 0 0 0 0 0 0 6 18 35 44 50 50 32 16 3 5 1 2 9 8 11 11 0 18 23
139 68 69 5 0 0 0 0 0 0 0 0 0 2 24 44 32 27 17 27 25 4 3 4 49 7 38 46 64 46 70 30
123 79 102 7 0 0 0 0 0 0 0 0 0 0 0 25 19 36 8 18 12 8 8 0 24 51 48 71 93 35 71 46
122 106 110 9 0 0 0 0 0 0 0 0 0 0 4 6 18 10 4 18 17 10 5 0 0 56 62 59 68 31 24 13
143 140 122 23 0 0 0 0 0 0 0 0 0 0 0 0 0 2 5 9 6 3 0 0 0 0 12 73 82 45 41 22
173 183 127 31 0 0 0 0 0 0 0 0 0 0 0 0 3 0 0 3 8 0 4 16 0 28 56 48 49 37 57 31

GFSFLT2_con_mucape_096.txt.gz
CAPE
1216 1201 1638 1775 1833 1775 1725 1580 1556 1438 1189 1261 965 722 610 724 617 489 446 678 843 974 713 493 291 182 95 17 5 0 0 0
1518 1302 1166 1506 1775 1889 1717 1533 1204 999 889 766 425 194 245 121 88 237 445 547 654 827 486 283 196 143 51 7 0 0 0 0
1419 1283 1068 908 1160 1511 1442 1320 1318 987 599 540 422 155 99 78 54 145 530 331 355 586 236 174 109 35 16 0 0 0 0 0
1181 897 718 647 688 892 1045 951 1175 595 671 598 467 159 121 135 84 232 258 266 284 214 112 36 0 0 0 0 0 0 0 0
951 709 510 409 486 572 821 992 682 603 512 712 304 192 130 136 104 130 133 151 161 108 73 5 0 0 0 0 0 0 0 0
663 764 493 336 237 433 729 798 531 592 433 334 204 67 13 41 52 53 110 135 95 65 52 34 0 0 0 0 0 0 0 0
384 726 485 269 150 104 120 526 334 209 75 0 0 0 9 12 40 67 95 96 62 66 81 26 1 0 0 0 0 0 0 0
100 294 407 297 104 36 97 171 153 37 2 0 0 1 1 33 13 64 65 43 70 52 71 56 24 7 0 0 0 0 0 0
130 105 310 285 109 0 14 46 15 18 67 6 2 6 30 21 25 40 36 20 69 58 85 76 5 0 0 0 0 0 0 0
241 128 84 168 55 12 0 5 19 57 78 67 7 5 3 20 14 30 15 39 64 61 62 32 0 0 0 0 0 0 0 0
323 164 6 101 72 0 13 53 73 188 234 55 15 38 0 27 38 14 23 60 48 62 63 19 0 0 0 0 0 0 0 0
347 194 34 32 34 0 19 29 11 87 106 129 68 37 11 12 6 15 25 61 35 26 9 0 0 0 0 0 4 3 0 0
363 256 45 3 0 0 0 3 2 15 92 167 58 34 59 28 16 16 20 1 30 20 0 0 5 0 0 7 17 17 1 0
313 294 72 23 0 0 5 3 0 3 20 29 35 123 34 33 25 30 31 4 70 17 2 0 8 6 11 18 12 13 3 1
292 300 97 43 4 0 0 2 1 1 0 0 1 1 63 49 27 32 45 23 60 22 2 4 6 12 20 17 4 8 1 0
276 284 132 60 17 0 0 0 0 0 0 0 0 0 0 5 13 27 77 47 48 21 10 3 2 0 3 51 32 1 20 7
281 256 157 80 37 0 0 0 0 0 0 0 0 0 0 9 13 30 16 38 29 29 16 8 0 1 0 59 70 51 52 38
248 210 169 90 64 16 0 0 0 0 0 0 0 0 0 14 10 5 25 5 45 25 18 10 6 0 0 82 99 84 19 0
193 214 171 110 84 23 0 0 0 0 0 0 0 0 0 0 0 2 10 14 34 19 19 22 6 1 0 76 104 110 68 18
168 229 176 122 108 31 0 0 0 0 0 0 0 0 0 0 0 8 11 3 6 9 11 17 18 2 0 9 9 0 25 29

GFSFLT2_con_mucape_099.txt.gz
CAPE
1747 1941 1606 1512 1564 1512 1529 1567 1591 1435 1264 1291 1118 932 700 695 805 1070 993 798 949 874 881 571 536 317 131 45 11 14 27 11
1405 1989 2110 2074 2105 1543 1500 1537 1433 1440 1136 962 712 566 608 705 852 736 586 651 752 585 513 371 338 247 120 56 6 6 45 12
1352 1466 1646 1988 2140 1776 1613 1480 1217 1240 868 869 626 652 532 766 390 399 554 470 466 468 346 215 275 254 156 41 4 42 20 8
1550 1415 1329 1356 1297 1544 1571 1349 1189 1126 800 803 1099 642 601 277 104 80 300 281 374 348 229 173 222 165 101 33 56 17 33 21
1459 1320 1151 958 751 1103 1314 1086 924 1026 710 564 506 418 581 208 346 272 474 250 246 158 102 243 237 169 49 12 8 2 15 35
1168 1060 862 747 692 753 840 764 708 689 952 485 566 410 360 246 308 354 316 314 104 80 150 235 100 37 0 0 0 0 13 25
792 750 658 523 475 498 466 454 648 514 583 585 424 245 204 283 176 123 118 150 49 59 42 54 55 26 0 0 0 0 1 33
559 402 512 430 341 323 280 272 345 414 582 423 335 243 168 14 94 85 128 145 81 61 54 49 81 1 0 0 0 0 0 17
255 232 780 390 290 182 111 71 44 121 183 174 28 8 58 12 1 49 28 69 38 62 63 66 61 37 19 0 0 0 0 6
142 107 537 641 329 163 52 21 68 64 26 68 26 219 63 41 24 36 23 49 22 43 60 51 59 66 43 3 0 0 0 0
161 107 147 309 285 139 74 0 34 54 32 27 54 32 148 84 83 13 45 33 18 3 42 52 72 81 74 19 0 6 13 1
191 68 153 160 157 78 20 0 22 312 28 30 58 150 101 110 33 6 6 13 18 38 60 45 89 70 51 22 2 14 10 8
126 108 182 189 49 59 15 0 0 7 25 36 64 82 39 44 33 8 2 5 30 34 52 60 0 48 56 18 7 2 10 7
123 143 228 225 48 4 26 2 4 1 32 41 45 172 69 85 35 47 18 7 6 26 35 4 13 24 23 8 5 6 7 3
169 225 257 278 103 0 0 3 6 20 5 20 46 50 85 89 34 46 12 25 5 12 16 22 3 4 3 4 0 9 3 1
179 216 236 307 152 19 6 0 0 0 1 0 1 18 17 16 24 34 60 37 22 6 4 12 1 0 0 1 16 3 0 8
196 190 171 283 201 53 24 2 0 0 0 0 3 0 0 20 8 31 13 73 36 50 9 12 0 0 2 0 0 17 38 28
230 130 103 264 230 89 47 4 0 0 0 0 0 0 0 0 40 0 6 12 23 57 11 22 0 0 2 1 0 0 0 0
307 154 114 262 244 129 76 7 0 0 0 0 0 0 0 0 2 12 8 35 18 40 40 40 22 10 1 6 2 1 0 49
194 83 152 229 226 152 113 16 0 0 0 0 0 0 2 0 27 7 13 6 0 32 25 49 15 9 1 4 0 0 0 66

GFSFLT2_con_mucape_102.txt.gz
CAPE
2379 2096 1834 1338 1328 1439 1495 1523 1641 1712 1747 1570 1206 1221 1052 892 856 815 501 851 974 1202 931 667 617 417 398 343 220 63 325 203
2502 2420 2246 2248 2086 1281 1293 1466 1480 1474 1461 1402 1087 820 832 874 767 846 1108 864 750 816 699 476 361 250 271 216 68 60 310 213
2347 2377 2343 2085 2118 1840 1379 1413 1454 1345 1186 957 989 1334 1122 823 597 765 826 714 613 648 402 195 183 163 178 146 41 321 166 119
2232 2299 2279 2248 1888 2236 2353 2285 2071 1856 1547 1346 1228 1113 1103 615 466 522 556 445 412 220 153 129 151 313 217 125 369 214 194 49
2114 2282 2273 2133 1883 1701 1762 2002 1748 1794 1411 1495 1409 1360 1085 796 922 621 550 326 710 145 93 152 175 583 376 389 286 306 116 47
1933 2017 2159 2101 1630 1620 1492 1117 1300 1341 1223 1082 1121 1204 919 786 788 399 502 378 474 184 73 108 301 444 389 322 231 110 98 49
1758 1787 1942 1764 1631 1287 1016 1203 1089 1035 912 555 774 894 637 279 351 497 609 835 251 132 59 111 505 355 236 209 159 85 75 64
1904 1595 1624 1553 1428 1351 1187 1192 887 789 617 411 477 722 598 618 569 507 740 755 407 129 72 103 495 399 210 173 155 99 74 60
1680 1652 1421 1452 1349 1361 1054 756 1107 614 447 466 477 400 545 454 346 369 580 396 93 69 23 69 60 234 169 148 137 98 44 30
1405 1286 1176 958 1195 1221 899 654 841 765 479 322 366 432 482 443 340 256 274 142 39 2 19 53 47 157 168 165 149 74 40 40
1151 1348 1110 665 704 1037 922 594 371 608 428 455 388 517 419 391 281 67 62 17 58 17 38 34 33 165 141 120 103 52 35 32
952 1102 1144 460 426 1046 825 361 445 216 192 488 504 295 384 428 302 8 17 20 19 26 10 14 47 142 107 112 94 51 44 42
819 1001 1190 390 662 758 524 235 66 319 154 169 274 397 287 262 110 5 4 15 30 19 13 9 52 67 72 33 77 53 28 44
621 870 1116 837 979 859 547 336 196 103 105 176 402 419 274 232 40 26 4 5 26 16 5 20 40 58 0 38 0 8 45 35
424 701 1056 888 974 791 474 347 67 88 61 1 81 312 176 35 29 20 34 1 11 3 6 21 0 0 54 0 0 0 15 27
231 514 895 858 968 740 366 184 75 77 40 1 7 50 47 48 41 43 7 2 4 25 10 8 4 0 63 80 58 40 23 53
292 475 772 848 958 706 500 457 318 102 18 9 8 28 60 54 23 30 18 43 25 22 14 7 2 13 35 116 83 65 59 37
454 533 774 831 840 711 614 523 237 30 8 11 18 19 24 29 67 8 30 14 36 12 14 2 5 32 115 183 47 42 46 0
579 614 765 753 381 545 541 266 225 53 3 3 8 5 22 25 41 67 3 30 27 7 22 12 1 4 23 31 6 1 0 0
637 652 663 447 348 402 337 209 277 34 2 2 5 12 24 27 51 56 34 6 0 32 41 17 44 12 11 7 4 0 1 0

GFSFLT2_con_mucape_105.txt.gz
CAPE
2547 1942 1610 1298 1381 1367 1399 1623 1605 1623 1875 1842 1586 1395 1163 1208 1060 966 958 1017 1309 1261 1028 857 708 577 456 462 383 255 305 232
2601 2425 2114 1993 1691 1253 1270 1318 1532 1596 1644 1721 1393 1028 904 1002 822 832 633 567 1029 1072 756 494 397 267 330 318 221 138 332 81
2481 2407 2248 2262 1981 1676 1161 1238 1285 1317 1519 1414 1361 1664 1468 1141 745 648 749 897 950 914 464 167 147 179 163 194 175 242 316 70
2067 2229 2170 2114 2098 2207 1969 1737 1809 1718 1452 1593 1753 1347 1483 1219 824 653 788 704 571 489 192 84 93 130 129 99 196 374 341 56
1776 2119 2218 2283 2168 2237 2170 2355 2411 2178 1844 1798 1775 1628 1833 1368 1540 676 721 494 606 228 121 170 38 50 207 252 367 379 126 69
1693 1935 2238 2315 1835 2166 1790 1987 2222 1962 1802 1771 1879 1806 1813 1616 1390 1018 1069 1065 729 803 492 115 10 74 169 428 295 266 46 52
1812 1871 2224 2178 2112 1793 1627 1596 1751 1744 1712 1551 1684 1591 1453 1366 1219 1025 832 1111 775 641 405 39 39 68 148 308 299 359 87 50
1835 1963 2046 2023 1976 1719 1526 1368 1109 1480 1438 1378 1478 1551 1472 1178 978 740 570 1014 884 760 305 68 50 45 238 421 181 147 97 111
1906 2143 2059 2030 1863 1844 1673 1295 1102 1085 945 1218 1182 1275 1190 897 687 576 641 1144 724 590 287 67 96 103 309 234 107 97 81 47
1362 1975 2117 1981 1834 1757 1577 1077 1041 1108 941 1125 1138 1116 1086 1029 908 858 802 800 436 262 130 40 45 93 80 183 94 57 54 66
838 1965 2152 1962 1817 1736 1640 1215 959 744 826 894 926 861 1000 897 818 774 919 599 81 38 69 48 59 64 72 118 66 69 42 17
423 1715 2140 2047 1589 1653 1533 1252 936 704 753 716 681 895 1074 793 674 558 500 177 48 12 11 25 35 50 93 68 82 122 52 46
468 1466 2005 1827 1079 1355 1502 1294 472 657 392 607 873 714 835 771 522 3 1 2 11 18 27 7 24 46 19 60 137 124 61 37
341 932 1477 1814 1095 1135 1380 1152 416 674 632 522 486 356 620 627 300 2 0 0 0 31 39 3 27 9 1 0 0 23 80 51
0 565 1079 1658 1105 1208 1319 1070 545 457 442 487 490 432 666 553 315 7 1 1 0 35 29 32 28 10 2 23 0 0 64 78
0 150 738 1300 1296 1313 1485 1081 787 578 607 190 372 443 350 383 124 7 11 0 3 5 11 30 7 0 1 52 24 13 0 6
44 17 416 1008 1497 1527 1710 1130 925 699 590 353 191 281 151 199 92 73 8 0 1 8 15 69 5 0 0 2 46 75 117 82
29 38 266 972 1404 1672 1790 1160 1029 842 661 280 56 138 146 146 95 21 16 9 0 8 15 40 52 25 0 39 39 54 54 66
45 99 292 879 1412 1590 1436 1131 1160 969 575 230 147 39 28 111 227 117 16 9 1 4 11 20 20 11 9 55 86 118 109 100
0 27 455 642 1244 1364 1471 1242 1200 851 547 224 113 45 12 13 27 94 50 29 13 0 2 2 9 10 22 42 46 60 8 10

GFSFLT2_con_mucape_108.txt.gz
CAPE
1932 1483 1318 1155 1149 1261 1535 1694 1700 1518 1601 1954 1960 1758 1702 1636 1529 1526 1512 1398 1282 1403 1235 1040 788 791 653 588 556 429 262 251
2302 1980 1605 1484 1303 963 1163 1408 1375 1534 1566 1728 1714 1508 1386 1153 1072 1119 1051 1106 1111 959 804 665 494 340 256 319 343 213 61 182
2870 2344 1950 1858 1622 1178 947 1047 1254 1303 1426 1507 1576 1421 1103 935 763 659 652 405 829 816 610 427 152 115 125 150 101 126 62 61
2600 2488 2207 2231 1514 1525 1368 1315 1240 1252 1489 1418 1538 1519 1392 1088 743 604 546 504 674 562 348 171 70 95 108 96 60 100 64 25
2158 2525 2454 2293 1577 2007 1687 1556 1516 1447 1432 1655 1593 1357 1363 1062 1045 496 555 579 618 320 137 46 34 44 60 47 63 112 78 54
1889 2189 2639 2167 1806 2185 2050 1818 1957 1855 1807 1581 1443 1290 1155 1129 1092 893 686 504 562 214 95 87 8 19 17 20 102 102 62 50
1699 2045 2317 2488 2647 2051 1768 1927 1894 1923 1672 1618 1402 1309 1140 1134 1001 1008 835 805 597 348 199 60 5 33 3 51 67 58 51 39
1778 1881 2355 2401 2053 2355 1803 1746 1699 1471 1462 1292 1469 1308 1137 931 904 807 738 737 580 471 281 62 17 38 17 38 73 80 38 40
1900 1939 2511 2284 2097 2138 1692 1367 1051 1018 1108 1005 1590 1372 1073 775 803 754 659 605 609 368 317 73 40 50 26 40 69 68 64 14
2058 1999 2197 2309 2082 1952 1541 1556 1092 826 836 1011 999 1077 1149 900 740 770 370 531 434 406 268 182 67 46 15 35 82 48 53 38
2052 2022 2252 2120 2151 1835 1706 1684 1244 1022 672 671 1130 912 954 842 632 520 478 393 345 297 213 92 66 54 78 67 70 16 43 27
1829 2188 2337 2043 1942 1822 1627 1525 1017 907 703 739 749 655 904 953 706 499 316 312 220 137 51 57 30 35 129 121 24 40 17 16
1028 2131 2323 2025 1870 1723 1577 1399 1125 792 657 545 482 599 759 853 520 308 408 110 195 31 16 35 60 51 35 72 8 34 33 51
447 1967 2289 1972 1832 1579 1479 1392 1062 771 360 356 583 660 798 649 377 170 29 28 33 2 0 16 38 32 9 0 0 0 4 33
4 554 2125 1896 1596 1214 1148 1305 1119 805 467 336 373 539 461 538 244 72 17 0 2 1 3 9 68 19 13 0 0 0 0 35
6 69 1152 1802 1607 1175 882 1070 1033 822 458 225 304 306 425 415 156 51 1 0 0 0 0 0 21 5 37 9 0 0 0 0
71 23 336 1318 1529 1260 1003 1235 993 487 441 298 193 447 308 358 170 38 1 0 3 0 0 0 8 27 2 0 1 0 0 0
0 75 74 662 1512 1255 1255 1247 938 638 607 431 216 197 260 207 98 31 2 0 0 1 0 0 2 31 5 7 0 0 0 0
0 0 29 283 1464 1385 1344 1471 1135 810 637 450 204 136 119 145 98 48 10 0 0 12 0 0 1 1 2 11 1 17 8 0
31 0 9 165 1167 1532 1254 1648 1138 1006 791 538 288 100 57 18 117 22 18 5 1 7 5 0 3 8 2 2 0 0 26 34

GFSFLT2_con_mucape_111.txt.gz
CAPE
942 1043 1088 1258 1474 1644 1727 1750 1631 1364 1409 1814 1964 1773 1585 1529 1619 1674 1596 1539 1528 1447 1237 1092 996 866 862 797 473 358 246 349
897 952 918 907 1039 1274 1440 1605 1426 1153 1159 1380 1829 1631 1467 1294 1331 1412 1423 1305 1325 1278 1020 921 724 740 657 548 425 238 77 207
1190 1040 959 880 792 899 1141 1248 1359 1346 1304 1552 1649 1518 1376 1213 1009 1013 1050 1009 1003 853 738 540 478 305 211 160 113 95 44 178
1618 1237 1135 1101 1052 820 777 923 1100 1159 1327 1423 1437 1295 1254 975 774 641 577 550 745 654 519 352 158 48 52 80 81 48 67 166
2145 1753 1472 1405 1373 1069 764 756 785 905 1146 1161 1218 1211 1091 835 577 444 256 152 444 548 400 303 104 37 53 66 19 64 69 93
2367 2077 1814 1762 1424 1360 1023 979 839 845 797 1094 1036 1133 1094 896 719 506 329 272 333 379 247 189 90 16 44 40 30 66 47 61
2196 2135 2006 1989 1716 1611 1442 1288 1089 1154 1031 988 1132 1044 862 858 929 673 455 351 309 267 116 93 74 14 0 11 34 31 40 44
1983 1969 2070 1889 1708 1779 1666 1630 1669 1585 1395 1327 1089 875 707 661 713 733 652 544 362 278 174 58 25 1 0 6 17 52 42 41
1731 1826 2083 1923 1699 1820 1756 1340 1631 1624 1350 1220 1034 960 888 755 679 593 590 563 488 198 75 40 23 8 0 24 24 57 41 38
1510 1711 1918 2083 1752 1897 1813 1608 1188 1094 793 843 800 974 831 695 651 563 520 524 379 219 139 94 68 31 2 39 32 82 53 36
1439 1663 1906 2007 1913 1615 1562 1462 1206 894 735 720 573 784 939 717 526 532 514 437 340 240 205 102 102 23 39 45 9 58 48 32
1390 1581 1987 1981 1974 1683 1586 1490 1252 1108 663 542 434 442 733 677 548 487 369 321 215 151 79 84 82 32 68 39 12 48 27 36
1533 1581 1976 2013 1966 1649 1612 1312 1310 1102 812 541 302 400 587 610 594 413 357 313 260 443 157 98 108 41 50 75 23 44 5 5
1659 1747 1885 1905 1923 1614 1477 1382 1205 1080 771 556 385 391 501 725 695 482 358 208 181 45 305 175 39 16 48 86 25 10 23 25
1443 1875 2005 1868 1761 1731 1433 1438 1302 1045 874 635 467 404 384 478 638 416 199 184 45 20 162 64 25 30 47 34 9 0 8 19
448 2011 2040 1917 1754 1710 1475 1421 1275 1190 990 724 464 418 409 725 664 359 187 46 5 88 5 2 7 14 39 3 17 1 0 0
3 395 1929 1783 1771 1598 1515 1248 1091 1225 1181 1012 637 209 457 417 394 275 64 21 0 0 2 2 7 11 25 0 6 0 0 0
22 3 35 1401 1603 1523 1297 1150 1016 1028 1116 1092 722 256 241 335 304 187 23 15 0 0 0 1 5 11 10 28 26 2 0 25
31 14 0 18 1388 1391 1226 928 993 1093 1100 1063 563 306 219 265 284 106 119 17 0 0 0 3 1 18 13 5 11 9 12 8
17 74 14 0 729 1333 1137 1022 866 1206 1064 907 507 315 316 155 219 126 46 4 1 0 0 9 10 0 2 3 6 8 26 0

GFSFLT2_con_mucape_114.txt.gz
CAPE
857 1034 1271 1565 1671 1728 1657 1531 1594 1640 1772 1867 1872 1702 1663 1605 1658 1600 1542 1650 1695 1553 1301 1155 1077 1038 886 581 561 290 434 367
815 950 1133 1348 1548 1630 1671 1678 1502 1323 1620 1752 1746 1562 1432 1448 1550 1464 1381 1496 1472 1392 1191 1096 1066 944 792 622 447 200 218 248
767 823 891 1039 1312 1512 1601 1626 1370 1076 1127 1209 1710 1511 1365 1253 1350 1431 1242 1089 1217 1193 1080 1025 929 764 496 425 327 194 150 299
770 785 721 759 883 1205 1372 1491 1269 1081 1112 1233 1602 1504 1316 1125 1051 1197 1183 916 1002 932 853 791 628 424 198 126 100 71 95 197
993 823 734 668 706 829 986 1130 1190 1219 1252 1354 1528 1388 1285 1086 838 785 661 728 728 711 601 403 275 71 19 14 25 26 70 107
1507 1003 878 822 849 555 607 754 835 902 1124 1209 1290 1260 1098 1038 725 498 401 361 506 516 463 289 153 36 47 5 0 5 55 115
1971 1497 1152 1091 1145 685 557 548 552 556 780 928 908 1111 1045 941 695 463 297 178 226 281 269 272 209 74 54 13 0 0 20 76
2190 2046 1695 1374 1388 1255 912 730 638 561 505 585 889 883 977 950 660 552 443 337 292 331 342 250 189 105 61 0 0 0 2 25
2321 2218 2020 1829 1632 1432 1224 1173 1014 924 885 803 847 939 863 812 850 794 759 389 389 352 308 335 212 66 0 0 0 16 23 15
2174 2269 2100 1983 1824 1710 1425 1451 1451 1503 1301 1193 1145 1074 871 732 575 613 633 548 472 416 336 235 89 0 0 21 0 19 19 26
1852 2113 2112 2076 1908 1820 1547 1630 1757 1753 1636 1508 1344 992 831 815 654 568 517 506 504 490 344 253 123 23 50 45 16 47 47 87
1306 1822 1970 2031 1933 1819 1685 1789 1622 1621 1590 1294 1055 810 779 830 725 619 499 504 458 383 362 337 164 106 57 18 30 47 28 73
783 1384 1751 1952 1959 1798 1915 1921 1759 1485 1164 952 698 552 621 695 700 537 456 391 312 361 318 267 259 213 68 16 49 4 32 41
380 1130 1656 1860 1902 1901 1742 1598 1524 1420 1252 970 592 510 383 489 666 431 454 446 288 264 471 481 220 177 88 68 49 36 29 50
408 1132 1738 1813 1858 1767 1569 1488 1352 1354 1341 1142 751 524 331 425 618 497 442 385 271 413 112 381 299 66 114 78 20 15 10 51
104 1343 1612 1805 1834 1782 1672 1377 1224 1355 1380 1069 870 666 339 482 539 578 459 351 206 120 114 155 102 13 42 14 15 21 35 4
0 970 1714 1721 1651 1717 1770 1388 1146 1161 1189 1084 846 772 644 405 466 539 532 411 75 48 51 278 163 51 10 10 27 21 0 0
0 0 562 1357 1550 1412 1337 1298 1259 1206 1075 911 823 835 845 636 416 487 534 362 188 62 19 118 35 0 16 9 11 0 15 8
0 0 0 179 891 1213 1244 1247 1250 1190 991 955 978 971 940 941 578 535 533 256 97 10 0 5 0 3 7 16 18 11 1 8
0 0 2 15 1 353 1069 1276 1228 1013 957 922 1094 1149 1051 982 426 347 325 189 4 2 6 0 0 1 3 13 45 32 9 6

GFSFLT2_con_mucape_117.txt.gz
CAPE
1007 1079 1247 1485 1642 1600 1410 1408 1448 1475 1613 1637 1782 1784 1718 1600 1628 1605 1719 1735 1655 1443 1167 1050 1024 1021 916 827 688 592 564 417
896 1031 1245 1421 1548 1552 1264 1224 1508 1479 1566 1578 1588 1566 1580 1501 1532 1446 1493 1554 1511 1325 1091 1004 1013 988 848 695 592 466 469 344
830 945 1103 1243 1364 1588 1466 1429 1540 1504 1532 1586 1542 1381 1384 1409 1477 1372 1220 1348 1301 1157 1022 988 882 764 755 560 562 263 284 254
721 835 999 1198 1202 1583 1584 1627 1470 1337 1437 1519 1434 1326 1256 1228 1362 1378 1060 1148 1092 1017 930 914 793 550 429 429 454 210 157 256
674 729 848 1014 1106 1339 1545 1828 1359 1201 1211 1254 1511 1368 1209 1100 1068 1262 1090 821 818 801 775 691 558 473 236 143 132 190 130 226
695 713 699 799 824 871 977 1363 1350 1009 1094 1145 1407 1426 1222 1107 895 963 1094 826 610 569 478 413 247 194 32 12 19 14 22 126
846 693 600 620 665 678 707 774 1050 896 994 1145 1341 1257 1160 1110 928 725 691 676 555 383 312 275 115 72 35 13 7 0 4 97
1187 750 596 590 614 485 489 550 631 710 800 1020 1210 1043 1042 1012 962 732 516 338 338 232 154 199 191 135 65 40 18 1 0 41
1811 1240 794 724 717 571 393 412 457 505 545 707 910 906 980 918 913 790 578 393 291 203 184 192 244 198 162 64 4 3 0 0
2266 1924 1571 1042 874 927 736 555 496 437 434 428 596 755 743 863 843 731 576 491 402 347 273 256 237 235 193 81 7 0 0 0
2257 2284 2131 1833 1393 1167 1107 938 817 745 693 634 560 696 869 793 771 732 674 733 716 444 367 346 287 229 106 10 17 38 3 5
1968 2228 2283 2180 2000 1705 1499 1359 1179 1102 952 1098 1063 1017 1083 1040 891 780 715 648 644 534 439 401 335 241 132 34 36 59 34 22
1365 1822 2101 2174 2132 2006 1825 1701 1585 1369 1491 1559 1436 1317 1319 1045 824 829 706 580 806 687 393 555 285 223 217 95 25 60 24 36
0 1189 1704 2028 2016 2047 1831 1789 1675 1555 1767 1756 1681 1532 1326 842 780 818 766 639 668 592 349 220 294 252 88 60 21 22 7 12
0 502 1125 1681 1968 1851 1830 1714 1630 1363 1443 1650 1627 1321 1066 751 656 702 704 576 811 248 243 194 119 130 124 222 24 11 25 22
52 660 1061 1557 1881 1838 1718 1709 1617 1333 1277 1326 1317 1174 749 669 554 559 616 532 381 152 218 157 92 21 75 101 35 9 46 11
178 794 1276 1709 1922 1847 1720 1595 1528 1200 1229 1209 1378 1224 987 702 535 426 608 536 440 374 286 198 189 18 78 68 62 39 16 19
0 316 1174 1350 2049 2292 1724 1640 1533 1210 1143 1043 1157 1258 1041 844 622 319 503 527 457 368 240 15 182 80 128 80 99 39 11 27
0 0 0 297 1507 1753 1999 1576 1487 1279 866 469 562 1025 1045 838 649 542 426 465 501 442 297 112 44 91 5 102 36 3 2 3
0 0 0 0 15 667 1231 1874 1882 1418 562 344 920 867 791 780 667 680 628 565 362 421 196 103 118 150 37 5 0 2 9 14

GFSFLT2_con_mucape_120.txt.gz
CAPE
1213 1346 1416 1487 1564 1562 1416 1277 1245 1301 1407 1546 1699 1670 1503 1439 1459 1583 1759 1837 1661 1277 1024 953 970 955 917 799 761 712 644 490
1035 1157 1218 1365 1488 1530 1461 1312 1282 1315 1338 1427 1479 1514 1412 1378 1340 1403 1524 1536 1429 1158 886 858 915 890 850 797 613 641 590 436
1029 1044 1112 1181 1362 1441 1454 1384 1342 1362 1360 1368 1412 1347 1379 1332 1332 1263 1330 1338 1258 1023 858 819 862 860 746 701 609 451 489 383
959 960 1051 1266 1287 1432 1203 1188 1420 1365 1377 1367 1291 1258 1341 1301 1328 1225 1152 1148 1121 936 821 807 746 646 684 599 480 273 335 312
829 872 1045 1257 1060 1519 1105 1527 1334 1412 1344 1389 1294 1190 1212 1227 1282 1318 989 1031 927 837 745 739 595 318 336 467 495 268 108 178
706 874 888 1026 932 1203 1658 1637 1882 1361 1363 1372 1365 1177 1161 1108 1162 1297 1088 905 740 694 585 600 406 268 151 119 128 152 157 106
655 814 875 929 880 906 1390 1423 1477 1059 1155 1301 1246 1213 1352 1076 999 1069 1138 888 605 500 399 346 298 151 96 32 3 0 0 4
589 769 721 781 827 669 864 1052 1153 930 767 987 1166 1692 1788 1040 1015 857 933 966 724 485 323 196 143 59 101 62 27 13 0 0
729 729 708 684 653 628 508 469 730 1006 845 969 1608 1445 1509 1199 987 905 764 737 724 533 347 172 117 68 98 101 69 8 2 0
1435 898 740 635 593 534 456 460 429 422 498 656 1082 1240 1105 813 843 915 801 670 488 360 242 120 87 100 150 150 105 60 2 0
2102 1756 1130 783 834 908 730 638 456 436 469 513 645 759 912 895 837 747 843 729 573 438 338 242 175 152 185 147 137 64 6 0
2095 2215 2030 1586 1178 1058 997 831 726 477 432 429 439 595 702 732 724 743 693 704 588 511 437 439 333 270 231 186 123 47 21 1
1623 2172 2230 2065 1836 1645 1390 1235 1076 781 652 558 540 478 530 603 691 695 720 671 556 606 637 399 541 183 324 127 97 59 46 31
0 1050 2150 2161 2098 2008 1871 1678 1492 1256 938 896 771 778 861 793 955 994 929 796 666 600 285 129 215 159 125 48 55 13 52 18
0 0 1021 2065 2134 2059 1901 1893 1858 1733 1531 1365 1097 1203 1354 1119 1119 1173 772 776 660 530 124 278 31 35 26 44 49 19 12 17
0 0 138 1306 2009 1993 1870 1716 1545 1696 1874 1668 1336 1703 1625 1495 1383 1263 681 652 700 341 167 94 151 62 141 48 65 22 27 5
163 196 511 1024 1800 2031 1932 1683 1760 1488 1424 1493 1540 1414 1474 1609 1425 1205 752 597 565 359 157 281 84 90 74 14 107 64 57 43
287 719 832 988 1553 1724 1736 1790 1809 1693 1576 1413 1239 1110 1330 1454 1288 976 750 544 454 576 423 150 82 83 153 108 12 31 45 35
192 635 1109 1072 1474 1887 1868 1600 1823 1649 1674 1521 1279 1083 940 970 778 961 788 649 415 244 593 522 295 90 49 74 73 21 35 45
2 25 49 236 702 1353 1586 1695 1390 1824 1527 1537 1413 1092 601 274 129 527 814 747 527 249 354 369 282 276 134 48 165 56 10 44

GFSFLT2_con_mucape_123.txt.gz
CAPE
1833 1908 1684 1550 1605 1580 1319 1186 1233 1406 1633 1779 1903 1856 1693 1664 1743 1789 1807 1725 1490 1159 955 861 901 848 704 738 768 783 1357 1472
1788 1905 1987 1997 1946 1571 1350 1189 1195 1283 1453 1639 1705 1598 1516 1323 1485 1649 1630 1628 1323 1035 793 814 832 750 658 615 580 579 1169 1088
1730 1820 1891 1975 1783 1786 1438 1294 1184 1237 1326 1473 1626 1787 1837 1538 1370 1439 1503 1442 1144 880 696 752 784 735 700 516 434 1132 1126 1089
1548 1786 1757 1747 1472 1505 1835 1803 1665 1634 1664 1762 1879 1924 1950 1669 1385 1255 1332 1271 1048 808 667 673 784 954 885 594 853 924 1014 1085
1374 1560 1656 1465 1376 1336 1632 1624 1483 1504 1632 1902 1929 1789 1872 1869 2065 1642 1768 1161 1520 1006 980 1051 564 515 1065 1096 795 632 867 953
1286 1384 1418 1383 1462 1271 1279 1232 1750 1740 1757 1579 1314 1453 1795 1916 1956 1944 1803 1614 1603 1330 1145 513 1008 724 793 930 860 788 669 730
1022 991 1114 1043 1307 1286 1164 1044 1449 1801 1513 1479 1348 1265 1278 1562 1767 1665 1761 1718 1467 1229 885 1033 937 635 472 407 396 513 622 633
995 1080 1278 1170 1177 1235 998 1098 1161 1824 1495 1328 1839 1432 1154 1122 1317 1500 1259 1487 1297 1122 764 850 907 622 301 19 111 250 293 373
1048 1148 1274 1419 1345 1271 1000 889 877 1380 1058 1328 1588 1609 1228 966 1006 1137 1278 1034 963 673 342 204 680 259 86 6 141 171 179 153
1435 1056 1182 1313 1506 1388 962 844 788 872 661 846 1650 1745 1510 1478 1464 891 993 859 921 775 534 358 535 492 419 234 169 122 142 69
1964 1402 1290 1421 1473 1416 1275 947 618 780 918 1071 1178 1400 1415 1383 1437 925 821 778 764 710 608 375 202 112 319 302 131 72 117 41
2142 1995 1623 1484 1372 1335 1202 1060 1001 1001 800 881 812 1124 1310 1435 876 754 634 762 721 633 488 374 288 252 153 120 141 105 79 148
1946 2221 1932 1609 1338 1492 1323 1220 1163 1051 915 944 986 1034 1127 969 778 662 560 587 690 648 587 404 405 215 320 177 194 112 97 39
998 1774 2410 1978 1768 1793 1691 1583 1402 1380 1110 969 1015 1068 1095 1050 772 515 480 518 622 473 413 316 403 161 123 49 19 22 12 104
57 444 1788 2501 2365 2226 1868 1803 1683 1469 1402 1234 1057 995 1016 993 919 654 420 519 821 561 411 695 297 80 188 364 51 114 13 5
0 0 0 1125 2720 2430 2241 1901 1810 1794 1767 1666 1471 1118 1197 1126 885 586 511 700 671 630 405 635 458 145 86 149 128 47 80 74
8 1 0 48 909 2231 2398 2349 2412 2171 1838 1900 1762 1563 1245 1026 744 1055 845 872 785 365 414 644 437 347 126 66 65 18 24 60
162 96 74 245 889 1230 1796 2030 1997 1991 1890 1550 1420 1331 1441 1330 945 1083 1088 752 806 512 644 666 403 256 235 143 80 62 37 37
141 157 261 469 753 1004 1315 1596 1964 2061 1771 1728 1581 1473 1364 1314 1257 1005 931 913 824 744 609 698 527 401 386 335 200 267 202 54
434 511 606 703 805 1143 1541 1438 1363 1476 1664 1500 1355 1247 1290 1106 840 852 855 823 734 698 630 493 290 297 256 155 94 79 134 61